| time (UTC) | temp F | wind direction | speed knots | gust knots | rain 1hr in | rain 24hr in | rain mn in | humidity % | barometer mb |
| 20260831152043 | 72 | 360 | 2.6 | 4.3 | 0.00 | 0.03 | 0.01 | 75 | 1020.3 |
| 20260831151946 | 72 | 330 | 2.6 | 4.3 | 0.00 | 0.03 | 0.01 | 77 | 1020.4 |
| 20260831151913 | 72 | 321 | 1.7 | 4.3 | 0.00 | 0.03 | 0.01 | 75 | 1020.4 |
| 20260831151721 | 72 | 13 | 0.9 | 4.3 | 0.00 | 0.03 | 0.01 | 74 | 1020.5 |
| 20260831151637 | 72 | 117 | 0.0 | 4.3 | 0.00 | 0.03 | 0.01 | 75 | 1020.5 |
| 20260831151445 | 71 | 242 | 1.7 | 4.3 | 0.00 | 0.03 | 0.01 | 73 | 1020.5 |
| 20260831151344 | 71 | 242 | 2.6 | 4.3 | 0.00 | 0.03 | 0.01 | 72 | 1020.5 |
| 20260831151307 | 71 | 231 | 3.5 | 4.3 | 0.00 | 0.03 | 0.01 | 73 | 1020.5 |
| 20260831151209 | 72 | 218 | 1.7 | 4.3 | 0.00 | 0.03 | 0.01 | 74 | 1020.5 |
| 20260831151131 | 72 | 192 | 1.7 | 3.5 | 0.00 | 0.03 | 0.01 | 76 | 1020.5 |
| 20260831150934 | 71 | 10 | 1.7 | 3.5 | 0.00 | 0.03 | 0.01 | 74 | 1020.5 |
| 20260831150836 | 71 | 355 | 0.9 | 3.5 | 0.00 | 0.03 | 0.01 | 75 | 1020.5 |
| 20260831150740 | 71 | 260 | 0.9 | 3.5 | 0.00 | 0.03 | 0.01 | 74 | 1020.5 |
| 20260831150704 | 71 | 260 | 0.9 | 5.2 | 0.00 | 0.03 | 0.01 | 73 | 1020.5 |
| 20260831150513 | 71 | 61 | 1.7 | 7.0 | 0.00 | 0.03 | 0.01 | 73 | 1020.5 |
| 20260831150427 | 71 | 65 | 2.6 | 7.8 | 0.00 | 0.03 | 0.01 | 73 | 1020.5 |
| 20260831150236 | 71 | 68 | 2.6 | 7.8 | 0.00 | 0.03 | 0.01 | 73 | 1020.5 |
| 20260831150151 | 71 | 96 | 1.7 | 7.8 | 0.00 | 0.03 | 0.01 | 73 | 1020.5 |
| 20260831150020 | 71 | 5 | 1.7 | 7.8 | 0.00 | 0.03 | 0.01 | 72 | 1020.5 |
| 20260831145942 | 72 | 296 | 2.6 | 7.8 | 0.00 | 0.03 | 0.01 | 73 | 1020.4 |
| 20260831145723 | 72 | 317 | 3.5 | 7.8 | 0.00 | 0.03 | 0.01 | 72 | 1020.5 |
| 20260831145654 | 72 | 312 | 3.5 | 7.8 | 0.00 | 0.03 | 0.01 | 74 | 1020.5 |
| 20260831145539 | 72 | 321 | 1.7 | 7.8 | 0.00 | 0.03 | 0.01 | 74 | 1020.5 |
| 20260831145504 | 72 | 153 | 1.7 | 7.8 | 0.00 | 0.03 | 0.01 | 74 | 1020.5 |
| 20260831145313 | 72 | 355 | 1.7 | 7.8 | 0.00 | 0.03 | 0.01 | 75 | 1020.6 |
| 20260831145228 | 72 | 311 | 2.6 | 7.8 | 0.00 | 0.03 | 0.01 | 74 | 1020.6 |
| 20260831145037 | 72 | 304 | 3.5 | 7.8 | 0.00 | 0.03 | 0.01 | 74 | 1020.5 |
| 20260831144931 | 72 | 281 | 2.6 | 7.8 | 0.00 | 0.03 | 0.01 | 73 | 1020.5 |
| 20260831144825 | 72 | 324 | 1.7 | 7.8 | 0.00 | 0.03 | 0.01 | 75 | 1020.5 |
| 20260831144746 | 72 | 271 | 0.9 | 7.8 | 0.00 | 0.03 | 0.01 | 75 | 1020.6 |
| 20260831144616 | 72 | 209 | 1.7 | 7.8 | 0.00 | 0.03 | 0.01 | 74 | 1020.6 |
| 20260831144529 | 72 | 198 | 1.7 | 7.8 | 0.00 | 0.03 | 0.01 | 73 | 1020.6 |
| 20260831144359 | 72 | 161 | 2.6 | 7.8 | 0.00 | 0.03 | 0.01 | 74 | 1020.6 |
| 20260831144325 | 72 | 110 | 3.5 | 7.8 | 0.00 | 0.03 | 0.01 | 74 | 1020.6 |
| 20260831144127 | 71 | 296 | 3.5 | 7.8 | 0.00 | 0.03 | 0.01 | 74 | 1020.7 |
| 20260831144030 | 71 | 360 | 1.7 | 5.2 | 0.00 | 0.03 | 0.01 | 73 | 1020.7 |
| 20260831143941 | 71 | 78 | 0.9 | 4.3 | 0.00 | 0.03 | 0.01 | 73 | 1020.7 |
| 20260831143902 | 71 | 240 | 1.7 | 4.3 | 0.00 | 0.03 | 0.01 | 73 | 1020.7 |
| 20260831143725 | 71 | 305 | 1.7 | 4.3 | 0.00 | 0.03 | 0.01 | 75 | 1020.7 |
| 20260831143646 | 71 | 309 | 1.7 | 4.3 | 0.00 | 0.03 | 0.01 | 73 | 1020.6 |
| 20260831143608 | 71 | 302 | 0.9 | 3.5 | 0.00 | 0.03 | 0.01 | 73 | 1020.6 |
| 20260831143511 | 71 | 256 | 0.9 | 3.5 | 0.00 | 0.03 | 0.01 | 73 | 1020.6 |
| 20260831143432 | 71 | 115 | 0.9 | 3.5 | 0.00 | 0.03 | 0.01 | 73 | 1020.6 |
| 20260831143306 | 71 | 186 | 0.9 | 3.5 | 0.00 | 0.03 | 0.01 | 75 | 1020.7 |
| 20260831143221 | 71 | 126 | 1.7 | 3.5 | 0.00 | 0.03 | 0.01 | 75 | 1020.7 |
| 20260831143032 | 71 | 142 | 1.7 | 4.3 | 0.00 | 0.03 | 0.01 | 75 | 1020.7 |
| 20260831142946 | 71 | 111 | 1.7 | 4.3 | 0.00 | 0.03 | 0.01 | 74 | 1020.7 |
| 20260831142754 | 71 | 155 | 0.9 | 4.3 | 0.00 | 0.03 | 0.01 | 74 | 1020.7 |
| 20260831142715 | 71 | 156 | 1.7 | 4.3 | 0.00 | 0.03 | 0.01 | 74 | 1020.7 |
| 20260831142546 | 71 | 210 | 1.7 | 4.3 | 0.00 | 0.03 | 0.01 | 73 | 1020.7 |
| 20260831142440 | 71 | 283 | 1.7 | 4.3 | 0.00 | 0.03 | 0.01 | 73 | 1020.7 |
| 20260831142236 | 71 | 226 | 1.7 | 4.3 | 0.00 | 0.03 | 0.01 | 75 | 1020.7 |
| 20260831142158 | 71 | 155 | 1.7 | 3.5 | 0.00 | 0.03 | 0.01 | 75 | 1020.7 |
| 20260831142102 | 70 | 136 | 0.9 | 3.5 | 0.00 | 0.03 | 0.01 | 75 | 1020.7 |
| 20260831142024 | 70 | 155 | 0.9 | 3.5 | 0.00 | 0.03 | 0.01 | 75 | 1020.7 |
| 20260831141827 | 70 | 157 | 0.9 | 3.5 | 0.00 | 0.03 | 0.01 | 78 | 1020.8 |
| 20260831141728 | 70 | 140 | 1.7 | 3.5 | 0.00 | 0.03 | 0.01 | 77 | 1020.8 |
| 20260831141631 | 70 | 111 | 1.7 | 3.5 | 0.00 | 0.03 | 0.01 | 75 | 1020.8 |
| 20260831141552 | 70 | 101 | 1.7 | 3.5 | 0.00 | 0.03 | 0.01 | 75 | 1020.8 |
| 20260831141515 | 70 | 91 | 1.7 | 3.5 | 0.00 | 0.03 | 0.01 | 75 | 1020.8 |
| 20260831141327 | 70 | 94 | 1.7 | 3.5 | 0.00 | 0.03 | 0.01 | 75 | 1020.9 |
| 20260831141248 | 70 | 140 | 1.7 | 3.5 | 0.00 | 0.03 | 0.01 | 75 | 1020.9 |
| 20260831141133 | 70 | 162 | 1.7 | 2.6 | 0.00 | 0.03 | 0.01 | 76 | 1020.9 |
| 20260831141054 | 70 | 190 | 1.7 | 2.6 | 0.00 | 0.03 | 0.01 | 78 | 1020.9 |
| 20260831141021 | 69 | 128 | 1.7 | 2.6 | 0.00 | 0.03 | 0.01 | 77 | 1020.9 |
| 20260831140904 | 69 | 139 | 1.7 | 2.6 | 0.00 | 0.03 | 0.01 | 76 | 1020.9 |
| 20260831140825 | 69 | 115 | 1.7 | 2.6 | 0.00 | 0.03 | 0.01 | 76 | 1020.9 |
| 20260831140656 | 69 | 115 | 0.9 | 2.6 | 0.00 | 0.03 | 0.01 | 77 | 1020.9 |
| 20260831140610 | 69 | 115 | 1.7 | 3.5 | 0.00 | 0.03 | 0.01 | 77 | 1020.9 |
| 20260831140418 | 69 | 96 | 1.7 | 5.2 | 0.00 | 0.03 | 0.01 | 76 | 1020.9 |
| 20260831140340 | 69 | 111 | 1.7 | 5.2 | 0.00 | 0.03 | 0.01 | 77 | 1020.9 |
| 20260831140142 | 69 | 135 | 1.7 | 5.2 | 0.00 | 0.03 | 0.01 | 78 | 1021.0 |
| 20260831140007 | 69 | 110 | 1.7 | 5.2 | 0.00 | 0.03 | 0.01 | 78 | 1021.0 |
| 20260831135929 | 69 | 140 | 1.7 | 5.2 | 0.00 | 0.03 | 0.01 | 79 | 1021.0 |
| 20260831135759 | 69 | 127 | 2.6 | 5.2 | 0.00 | 0.03 | 0.01 | 77 | 1021.0 |
| 20260831135725 | 69 | 99 | 2.6 | 5.2 | 0.00 | 0.03 | 0.01 | 77 | 1021.0 |
| 20260831135528 | 69 | 128 | 1.7 | 3.5 | 0.00 | 0.03 | 0.01 | 82 | 1021.0 |
| 20260831135450 | 69 | 111 | 1.7 | 3.5 | 0.00 | 0.03 | 0.01 | 82 | 1020.9 |
| 20260831135355 | 69 | 112 | 1.7 | 3.5 | 0.00 | 0.03 | 0.01 | 81 | 1021.0 |
| 20260831135316 | 69 | 103 | 1.7 | 3.5 | 0.00 | 0.03 | 0.01 | 79 | 1021.0 |
| 20260831135147 | 69 | 103 | 1.7 | 3.5 | 0.00 | 0.03 | 0.01 | 77 | 1021.0 |
| 20260831135023 | 69 | 96 | 0.9 | 3.5 | 0.00 | 0.03 | 0.01 | 78 | 1021.0 |
| 20260831134928 | 69 | 105 | 0.9 | 2.6 | 0.00 | 0.03 | 0.01 | 77 | 1021.0 |
| 20260831134827 | 69 | 98 | 1.7 | 2.6 | 0.00 | 0.03 | 0.01 | 77 | 1021.0 |
| 20260831134752 | 69 | 98 | 0.9 | 2.6 | 0.00 | 0.03 | 0.01 | 77 | 1021.1 |
| 20260831134656 | 69 | 125 | 0.0 | 3.5 | 0.00 | 0.03 | 0.01 | 77 | 1021.1 |
| 20260831134556 | 69 | 151 | 0.0 | 3.5 | 0.00 | 0.03 | 0.01 | 79 | 1021.1 |
| 20260831134455 | 69 | 151 | 0.0 | 3.5 | 0.00 | 0.03 | 0.01 | 77 | 1021.1 |
| 20260831134358 | 69 | 123 | 0.0 | 3.5 | 0.00 | 0.03 | 0.01 | 76 | 1021.1 |
| 20260831134321 | 69 | 134 | 0.9 | 3.5 | 0.00 | 0.03 | 0.01 | 77 | 1021.0 |
| 20260831134151 | 69 | 133 | 0.9 | 3.5 | 0.00 | 0.03 | 0.01 | 79 | 1021.0 |
| 20260831134105 | 69 | 133 | 1.7 | 3.5 | 0.00 | 0.03 | 0.01 | 79 | 1021.1 |
| 20260831133915 | 69 | 116 | 1.7 | 3.5 | 0.00 | 0.03 | 0.01 | 77 | 1021.0 |
| 20260831133837 | 69 | 115 | 1.7 | 3.5 | 0.00 | 0.03 | 0.01 | 77 | 1021.0 |
| 20260831133658 | 69 | 123 | 1.7 | 3.5 | 0.00 | 0.03 | 0.01 | 78 | 1021.0 |
| 20260831133621 | 69 | 118 | 1.7 | 2.6 | 0.00 | 0.03 | 0.01 | 78 | 1021.1 |
| 20260831133435 | 69 | 17 | 0.9 | 2.6 | 0.00 | 0.03 | 0.01 | 80 | 1021.1 |
| 20260831133351 | 68 | 355 | 0.0 | 2.6 | 0.00 | 0.03 | 0.01 | 78 | 1021.0 |
| 20260831133159 | 68 | 355 | 0.9 | 2.6 | 0.00 | 0.03 | 0.01 | 78 | 1021.1 |
| 20260831133120 | 68 | 355 | 0.9 | 2.6 | 0.00 | 0.03 | 0.01 | 77 | 1021.0 |
| 20260831132942 | 68 | 355 | 0.9 | 2.6 | 0.00 | 0.03 | 0.01 | 79 | 1021.0 |
| 20260831132843 | 68 | 355 | 0.9 | 2.6 | 0.00 | 0.03 | 0.01 | 80 | 1021.1 |
| 20260831132748 | 68 | 355 | 0.9 | 2.6 | 0.00 | 0.03 | 0.01 | 79 | 1021.1 |
| 20260831132709 | 68 | 355 | 0.9 | 1.7 | 0.00 | 0.03 | 0.01 | 79 | 1021.1 |
| 20260831132517 | 68 | 355 | 0.9 | 1.7 | 0.00 | 0.03 | 0.01 | 79 | 1021.1 |
| 20260831132432 | 68 | 355 | 0.9 | 1.7 | 0.00 | 0.03 | 0.01 | 79 | 1021.1 |
| 20260831132228 | 68 | 355 | 0.9 | 1.7 | 0.00 | 0.03 | 0.01 | 80 | 1021.1 |
| 20260831132142 | 68 | 355 | 0.9 | 1.7 | 0.00 | 0.03 | 0.01 | 80 | 1021.2 |
| 20260831132011 | 68 | 355 | 0.9 | 2.6 | 0.00 | 0.03 | 0.01 | 81 | 1021.1 |
| 20260831131932 | 68 | 355 | 0.9 | 2.6 | 0.00 | 0.03 | 0.01 | 82 | 1021.1 |
| 20260831131734 | 67 | 355 | 0.0 | 2.6 | 0.00 | 0.03 | 0.01 | 81 | 1021.1 |
| 20260831131655 | 67 | 355 | 0.0 | 2.6 | 0.00 | 0.03 | 0.01 | 81 | 1021.1 |
| 20260831131601 | 67 | 355 | 0.0 | 2.6 | 0.00 | 0.03 | 0.01 | 80 | 1021.2 |
| 20260831131440 | 67 | 355 | 0.9 | 2.6 | 0.00 | 0.03 | 0.01 | 82 | 1021.2 |
| 20260831131344 | 67 | 355 | 0.9 | 2.6 | 0.00 | 0.03 | 0.01 | 82 | 1021.2 |
| 20260831131243 | 67 | 355 | 0.9 | 1.7 | 0.00 | 0.03 | 0.01 | 80 | 1021.2 |
| 20260831131053 | 67 | 355 | 0.9 | 1.7 | 0.00 | 0.03 | 0.01 | 81 | 1021.2 |
| 20260831131012 | 67 | 355 | 0.9 | 1.7 | 0.00 | 0.03 | 0.01 | 82 | 1021.2 |
| 20260831130841 | 66 | 355 | 0.9 | 2.6 | 0.00 | 0.03 | 0.01 | 82 | 1021.2 |
| 20260831130741 | 66 | 355 | 0.9 | 2.6 | 0.00 | 0.03 | 0.01 | 84 | 1021.2 |
| 20260831130610 | 66 | 355 | 0.9 | 2.6 | 0.00 | 0.03 | 0.01 | 82 | 1021.2 |
| 20260831130525 | 66 | 355 | 0.9 | 2.6 | 0.00 | 0.03 | 0.01 | 84 | 1021.2 |
| 20260831130336 | 66 | 355 | 0.9 | 2.6 | 0.00 | 0.03 | 0.01 | 82 | 1021.1 |
| 20260831130231 | 66 | 336 | 0.9 | 2.6 | 0.00 | 0.03 | 0.01 | 81 | 1021.2 |
| 20260831130153 | 65 | 336 | 0.9 | 2.6 | 0.00 | 0.03 | 0.01 | 81 | 1021.2 |
| 20260831130058 | 65 | 336 | 0.9 | 2.6 | 0.00 | 0.03 | 0.01 | 82 | 1021.2 |
| 20260831130021 | 65 | 336 | 0.9 | 3.5 | 0.00 | 0.03 | 0.01 | 85 | 1021.2 |
| 20260831125828 | 65 | 317 | 0.9 | 3.5 | 0.00 | 0.03 | 0.01 | 85 | 1021.2 |
| 20260831125728 | 65 | 344 | 0.9 | 3.5 | 0.00 | 0.03 | 0.01 | 85 | 1021.2 |
| 20260831125631 | 65 | 344 | 1.7 | 3.5 | 0.00 | 0.03 | 0.01 | 84 | 1021.3 |
| 20260831125532 | 65 | 344 | 1.7 | 3.5 | 0.00 | 0.03 | 0.01 | 85 | 1021.3 |
| 20260831125401 | 65 | 344 | 0.9 | 3.5 | 0.00 | 0.03 | 0.01 | 86 | 1021.2 |
| 20260831125316 | 64 | 344 | 1.7 | 3.5 | 0.00 | 0.03 | 0.01 | 86 | 1021.3 |
| 20260831125125 | 64 | 338 | 0.0 | 3.5 | 0.00 | 0.03 | 0.01 | 86 | 1021.3 |
| 20260831125026 | 64 | 338 | 0.9 | 3.5 | 0.00 | 0.03 | 0.01 | 86 | 1021.3 |
| 20260831124855 | 64 | 338 | 0.9 | 3.5 | 0.00 | 0.03 | 0.01 | 88 | 1021.3 |
| 20260831124736 | 64 | 337 | 0.9 | 3.5 | 0.00 | 0.03 | 0.01 | 88 | 1021.3 |
| 20260831124624 | 63 | 337 | 1.7 | 3.5 | 0.00 | 0.03 | 0.01 | 87 | 1021.3 |
| 20260831124545 | 63 | 341 | 0.9 | 3.5 | 0.00 | 0.03 | 0.01 | 88 | 1021.3 |
| 20260831124506 | 63 | 340 | 1.7 | 3.5 | 0.00 | 0.03 | 0.01 | 88 | 1021.3 |
| 20260831124348 | 63 | 346 | 1.7 | 3.5 | 0.00 | 0.03 | 0.01 | 85 | 1021.3 |
| 20260831124249 | 63 | 346 | 1.7 | 3.5 | 0.00 | 0.03 | 0.01 | 85 | 1021.3 |
| 20260831124119 | 63 | 30 | 0.9 | 1.7 | 0.00 | 0.03 | 0.01 | 87 | 1021.3 |
| 20260831124033 | 62 | 360 | 0.9 | 1.7 | 0.00 | 0.03 | 0.01 | 89 | 1021.3 |
| 20260831123913 | 62 | 360 | 0.9 | 1.7 | 0.00 | 0.03 | 0.01 | 90 | 1021.3 |
| 20260831123835 | 62 | 5 | 0.9 | 1.7 | 0.00 | 0.03 | 0.01 | 90 | 1021.3 |
| 20260831123707 | 62 | 49 | 0.0 | 0.9 | 0.00 | 0.03 | 0.01 | 89 | 1021.4 |
| 20260831123621 | 62 | 64 | 0.0 | 0.9 | 0.00 | 0.03 | 0.01 | 89 | 1021.4 |
| 20260831123431 | 61 | 80 | 0.0 | 0.9 | 0.00 | 0.03 | 0.01 | 89 | 1021.4 |
| 20260831123351 | 61 | 80 | 0.0 | 0.9 | 0.00 | 0.03 | 0.01 | 89 | 1021.4 |
| 20260831123220 | 61 | 80 | 0.0 | 0.9 | 0.00 | 0.03 | 0.01 | 88 | 1021.4 |
| 20260831123122 | 61 | 80 | 0.0 | 0.9 | 0.00 | 0.03 | 0.01 | 88 | 1021.4 |
| 20260831122925 | 61 | 80 | 0.0 | 0.9 | 0.00 | 0.03 | 0.01 | 89 | 1021.4 |
| 20260831122846 | 61 | 80 | 0.0 | 0.9 | 0.00 | 0.03 | 0.01 | 90 | 1021.4 |
| 20260831122750 | 61 | 80 | 0.0 | 0.9 | 0.00 | 0.03 | 0.01 | 90 | 1021.4 |
| 20260831122711 | 60 | 80 | 0.0 | 0.9 | 0.00 | 0.03 | 0.01 | 91 | 1021.5 |
| 20260831122519 | 60 | 80 | 0.0 | 1.7 | 0.00 | 0.03 | 0.01 | 91 | 1021.5 |
| 20260831122419 | 60 | 80 | 0.0 | 1.7 | 0.00 | 0.03 | 0.01 | 91 | 1021.5 |
| 20260831122223 | 60 | 80 | 0.0 | 1.7 | 0.00 | 0.03 | 0.01 | 90 | 1021.5 |
| 20260831122141 | 60 | 80 | 0.0 | 1.7 | 0.00 | 0.03 | 0.01 | 90 | 1021.5 |
| 20260831122043 | 60 | 80 | 0.9 | 1.7 | 0.00 | 0.03 | 0.01 | 90 | 1021.5 |
| 20260831121957 | 60 | 80 | 0.9 | 1.7 | 0.00 | 0.03 | 0.01 | 90 | 1021.5 |
| 20260831121929 | 60 | 80 | 0.9 | 1.7 | 0.00 | 0.03 | 0.01 | 90 | 1021.5 |
| 20260831121727 | 59 | 80 | 0.9 | 1.7 | 0.00 | 0.03 | 0.01 | 91 | 1021.6 |
| 20260831121622 | 59 | 80 | 0.9 | 1.7 | 0.00 | 0.03 | 0.01 | 91 | 1021.6 |
| 20260831121430 | 59 | 80 | 0.9 | 1.7 | 0.00 | 0.03 | 0.01 | 92 | 1021.5 |
| 20260831121345 | 59 | 80 | 0.0 | 1.7 | 0.00 | 0.03 | 0.01 | 92 | 1021.5 |
| 20260831121215 | 59 | 337 | 0.0 | 0.9 | 0.00 | 0.03 | 0.01 | 92 | 1021.5 |
| 20260831121136 | 59 | 326 | 0.0 | 0.0 | 0.00 | 0.03 | 0.01 | 92 | 1021.5 |
| 20260831121000 | 59 | 284 | 0.0 | 0.0 | 0.00 | 0.03 | 0.01 | 93 | 1021.5 |
| 20260831120925 | 59 | 284 | 0.0 | 0.0 | 0.00 | 0.03 | 0.01 | 93 | 1021.5 |
| 20260831120804 | 58 | 284 | 0.0 | 0.0 | 0.00 | 0.03 | 0.01 | 93 | 1021.5 |
| 20260831120726 | 58 | 284 | 0.0 | 0.0 | 0.00 | 0.03 | 0.01 | 93 | 1021.5 |
| 20260831120529 | 58 | 284 | 0.0 | 0.0 | 0.00 | 0.03 | 0.01 | 93 | 1021.5 |
| 20260831120450 | 58 | 15 | 0.0 | 0.0 | 0.00 | 0.03 | 0.01 | 93 | 1021.5 |
| 20260831120333 | 58 | 15 | 0.0 | 0.0 | 0.00 | 0.03 | 0.01 | 94 | 1021.5 |
| 20260831120252 | 58 | 15 | 0.0 | 0.0 | 0.00 | 0.03 | 0.01 | 94 | 1021.5 |
| 20260831120207 | 58 | 15 | 0.0 | 0.0 | 0.00 | 0.03 | 0.01 | 94 | 1021.5 |
| 20260831120107 | 58 | 15 | 0.0 | 0.0 | 0.00 | 0.03 | 0.01 | 94 | 1021.5 |
| 20260831120029 | 58 | 14 | 0.0 | 0.0 | 0.00 | 0.03 | 0.01 | 94 | 1021.5 |
| 20260831115834 | 58 | 360 | 0.0 | 0.0 | 0.00 | 0.03 | 0.01 | 94 | 1021.4 |
| 20260831115755 | 58 | 360 | 0.0 | 0.0 | 0.00 | 0.03 | 0.01 | 94 | 1021.4 |
| 20260831115659 | 58 | 360 | 0.0 | 0.0 | 0.00 | 0.03 | 0.01 | 95 | 1021.5 |
| 20260831115621 | 58 | 360 | 0.0 | 0.0 | 0.00 | 0.03 | 0.01 | 95 | 1021.5 |
| 20260831115423 | 57 | 360 | 0.0 | 0.0 | 0.00 | 0.03 | 0.01 | 95 | 1021.5 |
| 20260831115323 | 57 | 360 | 0.0 | 0.0 | 0.00 | 0.03 | 0.01 | 95 | 1021.5 |
| 20260831115226 | 57 | 360 | 0.0 | 0.0 | 0.00 | 0.03 | 0.01 | 95 | 1021.5 |
| 20260831115147 | 57 | 360 | 0.0 | 0.0 | 0.00 | 0.03 | 0.01 | 95 | 1021.5 |
| 20260831115015 | 57 | 360 | 0.0 | 0.0 | 0.00 | 0.03 | 0.01 | 95 | 1021.4 |
| 20260831114916 | 57 | 360 | 0.0 | 0.0 | 0.00 | 0.03 | 0.01 | 95 | 1021.4 |
| 20260831114733 | 57 | 360 | 0.0 | 0.0 | 0.00 | 0.03 | 0.01 | 95 | 1021.4 |
| 20260831114654 | 56 | 360 | 0.0 | 0.0 | 0.00 | 0.03 | 0.01 | 95 | 1021.3 |
| 20260831114539 | 56 | 360 | 0.0 | 0.0 | 0.00 | 0.03 | 0.01 | 95 | 1021.3 |
| 20260831114501 | 56 | 360 | 0.0 | 0.0 | 0.00 | 0.03 | 0.01 | 95 | 1021.3 |
| 20260831114252 | 56 | 360 | 0.0 | 0.0 | 0.00 | 0.03 | 0.01 | 95 | 1021.3 |
| 20260831114100 | 56 | 360 | 0.0 | 0.0 | 0.00 | 0.03 | 0.01 | 95 | 1021.3 |
| 20260831114020 | 56 | 360 | 0.0 | 0.0 | 0.00 | 0.03 | 0.01 | 95 | 1021.3 |
| 20260831113903 | 56 | 360 | 0.0 | 0.0 | 0.00 | 0.03 | 0.01 | 95 | 1021.2 |
| 20260831113805 | 56 | 360 | 0.0 | 0.0 | 0.00 | 0.03 | 0.01 | 95 | 1021.2 |
| 20260831113633 | 56 | 360 | 0.0 | 0.0 | 0.00 | 0.03 | 0.01 | 95 | 1021.2 |
| 20260831113534 | 56 | 360 | 0.0 | 0.0 | 0.00 | 0.03 | 0.01 | 95 | 1021.2 |
| 20260831113338 | 55 | 360 | 0.0 | 0.0 | 0.00 | 0.03 | 0.01 | 96 | 1021.2 |
| 20260831113259 | 55 | 360 | 0.0 | 0.0 | 0.00 | 0.03 | 0.01 | 96 | 1021.2 |
| 20260831113202 | 55 | 360 | 0.0 | 0.0 | 0.00 | 0.03 | 0.01 | 96 | 1021.2 |
| 20260831113042 | 55 | 360 | 0.0 | 0.0 | 0.00 | 0.03 | 0.01 | 96 | 1021.2 |
| 20260831112911 | 55 | 360 | 0.0 | 0.0 | 0.00 | 0.03 | 0.01 | 95 | 1021.2 |
| 20260831112827 | 55 | 360 | 0.0 | 0.0 | 0.00 | 0.03 | 0.01 | 96 | 1021.2 |
| 20260831112636 | 55 | 360 | 0.0 | 0.0 | 0.00 | 0.03 | 0.01 | 96 | 1021.2 |
| 20260831112552 | 55 | 360 | 0.0 | 0.0 | 0.00 | 0.03 | 0.01 | 96 | 1021.1 |
| 20260831112420 | 55 | 360 | 0.0 | 0.0 | 0.00 | 0.03 | 0.01 | 96 | 1021.1 |
| 20260831112320 | 55 | 360 | 0.0 | 0.0 | 0.00 | 0.03 | 0.01 | 95 | 1021.1 |
| 20260831112223 | 54 | 360 | 0.0 | 0.0 | 0.01 | 0.03 | 0.01 | 95 | 1021.1 |
| 20260831112123 | 54 | 360 | 0.0 | 0.0 | 0.01 | 0.03 | 0.01 | 96 | 1021.1 |
| 20260831111938 | 54 | 360 | 0.0 | 0.0 | 0.01 | 0.03 | 0.01 | 96 | 1021.2 |
| 20260831111852 | 54 | 360 | 0.0 | 0.0 | 0.01 | 0.03 | 0.01 | 95 | 1021.2 |
| 20260831111722 | 54 | 360 | 0.0 | 0.0 | 0.01 | 0.03 | 0.01 | 95 | 1021.1 |
| 20260831111622 | 54 | 360 | 0.0 | 0.0 | 0.01 | 0.03 | 0.01 | 95 | 1021.1 |
| 20260831111424 | 53 | 360 | 0.0 | 0.0 | 0.01 | 0.03 | 0.01 | 95 | 1021.2 |
| 20260831111345 | 53 | 360 | 0.0 | 0.0 | 0.01 | 0.03 | 0.01 | 95 | 1021.2 |
| 20260831111228 | 53 | 360 | 0.0 | 0.0 | 0.01 | 0.03 | 0.01 | 95 | 1021.2 |
| 20260831111151 | 53 | 360 | 0.0 | 0.0 | 0.01 | 0.03 | 0.01 | 95 | 1021.2 |
| 20260831110933 | 53 | 360 | 0.0 | 0.0 | 0.01 | 0.03 | 0.01 | 95 | 1021.1 |
| 20260831110858 | 53 | 360 | 0.0 | 0.0 | 0.01 | 0.03 | 0.01 | 95 | 1021.1 |
| 20260831110742 | 53 | 360 | 0.0 | 0.0 | 0.01 | 0.03 | 0.01 | 95 | 1021.1 |
| 20260831110637 | 53 | 329 | 0.0 | 0.0 | 0.01 | 0.03 | 0.01 | 95 | 1021.1 |
| 20260831110558 | 53 | 329 | 0.0 | 0.0 | 0.01 | 0.03 | 0.01 | 95 | 1021.1 |
| 20260831110519 | 53 | 329 | 0.0 | 0.0 | 0.01 | 0.03 | 0.01 | 95 | 1021.0 |
| 20260831110433 | 53 | 329 | 0.0 | 0.0 | 0.01 | 0.03 | 0.01 | 95 | 1021.0 |
| 20260831110243 | 53 | 329 | 0.0 | 0.0 | 0.01 | 0.03 | 0.01 | 95 | 1021.0 |
| 20260831110136 | 53 | 329 | 0.0 | 0.0 | 0.01 | 0.03 | 0.01 | 95 | 1021.0 |
| 20260831110057 | 53 | 329 | 0.0 | 0.0 | 0.01 | 0.03 | 0.01 | 95 | 1021.0 |
| 20260831110024 | 53 | 329 | 0.0 | 0.0 | 0.01 | 0.03 | 0.01 | 95 | 1021.0 |
| 20260831105826 | 53 | 329 | 0.0 | 0.0 | 0.01 | 0.03 | 0.01 | 95 | 1021.0 |
| 20260831105748 | 53 | 329 | 0.0 | 0.0 | 0.01 | 0.03 | 0.01 | 95 | 1021.0 |
| 20260831105632 | 53 | 329 | 0.0 | 0.0 | 0.01 | 0.03 | 0.01 | 95 | 1021.0 |
| 20260831105554 | 53 | 329 | 0.0 | 0.0 | 0.01 | 0.03 | 0.01 | 95 | 1021.0 |
| 20260831105336 | 53 | 329 | 0.0 | 0.0 | 0.01 | 0.03 | 0.01 | 95 | 1020.9 |
| 20260831105257 | 53 | 329 | 0.0 | 0.0 | 0.01 | 0.03 | 0.01 | 95 | 1021.0 |
| 20260831105200 | 53 | 329 | 0.0 | 0.0 | 0.01 | 0.03 | 0.01 | 95 | 1020.9 |
| 20260831105121 | 53 | 329 | 0.0 | 0.0 | 0.01 | 0.03 | 0.01 | 95 | 1020.9 |
| 20260831104951 | 53 | 329 | 0.0 | 0.0 | 0.01 | 0.03 | 0.01 | 95 | 1020.9 |
| 20260831104827 | 53 | 329 | 0.0 | 0.0 | 0.01 | 0.03 | 0.01 | 95 | 1020.8 |
| 20260831104749 | 53 | 329 | 0.0 | 0.0 | 0.01 | 0.03 | 0.01 | 95 | 1020.8 |
| 20260831104701 | 53 | 329 | 0.0 | 0.0 | 0.01 | 0.03 | 0.01 | 95 | 1020.7 |
| 20260831104624 | 53 | 329 | 0.0 | 0.0 | 0.01 | 0.03 | 0.01 | 95 | 1020.7 |
| 20260831104434 | 53 | 329 | 0.0 | 0.0 | 0.01 | 0.03 | 0.01 | 95 | 1020.7 |
| 20260831104328 | 53 | 329 | 0.0 | 0.0 | 0.01 | 0.03 | 0.01 | 95 | 1020.7 |
| 20260831104249 | 53 | 329 | 0.0 | 0.0 | 0.01 | 0.03 | 0.01 | 95 | 1020.7 |
| 20260831104152 | 53 | 329 | 0.0 | 0.0 | 0.01 | 0.03 | 0.01 | 95 | 1020.7 |
| 20260831104114 | 53 | 329 | 0.0 | 0.0 | 0.01 | 0.03 | 0.01 | 95 | 1020.7 |
| 20260831103944 | 53 | 329 | 0.0 | 0.0 | 0.01 | 0.03 | 0.01 | 95 | 1020.7 |
| 20260831103823 | 53 | 329 | 0.0 | 0.0 | 0.01 | 0.03 | 0.01 | 95 | 1020.7 |
| 20260831103715 | 53 | 329 | 0.0 | 0.0 | 0.01 | 0.03 | 0.01 | 95 | 1020.6 |
| 20260831103616 | 53 | 329 | 0.0 | 0.0 | 0.01 | 0.03 | 0.01 | 95 | 1020.6 |
| 20260831103446 | 53 | 329 | 0.0 | 0.0 | 0.01 | 0.03 | 0.01 | 95 | 1020.6 |
| 20260831103402 | 53 | 329 | 0.0 | 0.0 | 0.01 | 0.03 | 0.01 | 95 | 1020.6 |
| 20260831103230 | 53 | 329 | 0.0 | 0.0 | 0.01 | 0.03 | 0.01 | 95 | 1020.5 |
| 20260831103131 | 53 | 329 | 0.0 | 0.0 | 0.01 | 0.03 | 0.01 | 95 | 1020.5 |
| 20260831102954 | 53 | 329 | 0.0 | 0.0 | 0.01 | 0.03 | 0.01 | 95 | 1020.6 |
| 20260831102916 | 53 | 329 | 0.0 | 0.0 | 0.01 | 0.03 | 0.01 | 95 | 1020.6 |
| 20260831102727 | 53 | 329 | 0.0 | 0.0 | 0.01 | 0.03 | 0.01 | 95 | 1020.5 |
| 20260831102645 | 53 | 329 | 0.0 | 0.0 | 0.01 | 0.03 | 0.01 | 95 | 1020.5 |
| 20260831102515 | 53 | 329 | 0.0 | 0.0 | 0.01 | 0.03 | 0.01 | 95 | 1020.5 |
| 20260831102437 | 53 | 329 | 0.0 | 0.0 | 0.01 | 0.03 | 0.01 | 95 | 1020.5 |
| 20260831102239 | 53 | 329 | 0.0 | 0.0 | 0.00 | 0.02 | 0.00 | 95 | 1020.6 |
| 20260831102159 | 53 | 329 | 0.0 | 0.0 | 0.00 | 0.02 | 0.00 | 95 | 1020.5 |
| 20260831102103 | 53 | 329 | 0.0 | 0.0 | 0.00 | 0.02 | 0.00 | 95 | 1020.5 |
| 20260831102025 | 53 | 329 | 0.0 | 0.0 | 0.00 | 0.02 | 0.00 | 95 | 1020.5 |
| 20260831101827 | 53 | 329 | 0.0 | 0.0 | 0.00 | 0.02 | 0.00 | 95 | 1020.4 |
| 20260831101739 | 53 | 329 | 0.0 | 0.0 | 0.00 | 0.02 | 0.00 | 95 | 1020.5 |
| 20260831101628 | 53 | 329 | 0.0 | 0.0 | 0.00 | 0.02 | 0.00 | 95 | 1020.5 |
| 20260831101549 | 53 | 329 | 0.0 | 0.0 | 0.00 | 0.02 | 0.00 | 95 | 1020.5 |
| 20260831101420 | 53 | 329 | 0.0 | 0.0 | 0.00 | 0.02 | 0.00 | 95 | 1020.5 |
| 20260831101335 | 53 | 329 | 0.0 | 0.0 | 0.00 | 0.02 | 0.00 | 95 | 1020.6 |
| 20260831101124 | 53 | 329 | 0.0 | 0.0 | 0.00 | 0.02 | 0.00 | 95 | 1020.6 |
| 20260831101039 | 53 | 329 | 0.0 | 0.0 | 0.00 | 0.02 | 0.00 | 95 | 1020.5 |
| 20260831100941 | 53 | 329 | 0.0 | 0.0 | 0.00 | 0.02 | 0.00 | 95 | 1020.5 |
| 20260831100844 | 53 | 329 | 0.0 | 0.0 | 0.00 | 0.02 | 0.00 | 95 | 1020.5 |
| 20260831100804 | 53 | 329 | 0.0 | 0.0 | 0.00 | 0.02 | 0.00 | 95 | 1020.5 |
| 20260831100725 | 53 | 329 | 0.0 | 0.0 | 0.00 | 0.02 | 0.00 | 95 | 1020.5 |
| 20260831100607 | 53 | 329 | 0.0 | 0.0 | 0.00 | 0.02 | 0.00 | 95 | 1020.5 |
| 20260831100532 | 53 | 329 | 0.0 | 0.0 | 0.00 | 0.02 | 0.00 | 95 | 1020.5 |
| 20260831100335 | 53 | 329 | 0.0 | 0.0 | 0.00 | 0.02 | 0.00 | 95 | 1020.4 |
| 20260831100235 | 53 | 329 | 0.0 | 0.0 | 0.00 | 0.02 | 0.00 | 95 | 1020.4 |
| 20260831100139 | 53 | 329 | 0.0 | 0.0 | 0.00 | 0.02 | 0.00 | 95 | 1020.4 |
| 20260831100100 | 53 | 329 | 0.0 | 0.0 | 0.00 | 0.02 | 0.00 | 95 | 1020.4 |
| 20260831100020 | 53 | 329 | 0.0 | 0.0 | 0.00 | 0.02 | 0.00 | 95 | 1020.5 |
| 20260831095924 | 53 | 329 | 0.0 | 0.0 | 0.00 | 0.02 | 0.00 | 95 | 1020.4 |
| 20260831095825 | 53 | 329 | 0.0 | 0.0 | 0.00 | 0.02 | 0.00 | 95 | 1020.4 |
| 20260831095627 | 53 | 329 | 0.0 | 0.0 | 0.00 | 0.02 | 0.00 | 95 | 1020.4 |
| 20260831095541 | 53 | 329 | 0.0 | 0.0 | 0.00 | 0.02 | 0.00 | 95 | 1020.4 |
| 20260831095423 | 53 | 329 | 0.0 | 0.0 | 0.00 | 0.02 | 0.00 | 95 | 1020.4 |
| 20260831095344 | 53 | 329 | 0.0 | 0.0 | 0.00 | 0.02 | 0.00 | 95 | 1020.4 |
| 20260831095309 | 53 | 329 | 0.0 | 0.0 | 0.00 | 0.02 | 0.00 | 95 | 1020.4 |
| 20260831095210 | 53 | 329 | 0.0 | 0.0 | 0.00 | 0.02 | 0.00 | 95 | 1020.4 |
| 20260831095133 | 53 | 329 | 0.0 | 0.0 | 0.00 | 0.02 | 0.00 | 95 | 1020.4 |
| 20260831094935 | 53 | 329 | 0.0 | 0.0 | 0.00 | 0.02 | 0.00 | 95 | 1020.4 |
| 20260831094837 | 53 | 329 | 0.0 | 0.0 | 0.00 | 0.02 | 0.00 | 95 | 1020.3 |
| 20260831094742 | 53 | 329 | 0.0 | 0.0 | 0.00 | 0.02 | 0.00 | 95 | 1020.3 |
| 20260831094702 | 53 | 329 | 0.0 | 0.0 | 0.00 | 0.02 | 0.00 | 95 | 1020.3 |
| 20260831094606 | 53 | 329 | 0.0 | 0.0 | 0.00 | 0.02 | 0.00 | 95 | 1020.4 |
| 20260831094510 | 53 | 329 | 0.0 | 0.0 | 0.00 | 0.02 | 0.00 | 95 | 1020.3 |
| 20260831094431 | 53 | 329 | 0.0 | 0.0 | 0.00 | 0.02 | 0.00 | 95 | 1020.3 |
| 20260831094301 | 53 | 329 | 0.0 | 0.0 | 0.00 | 0.02 | 0.00 | 95 | 1020.3 |
| 20260831094216 | 53 | 329 | 0.0 | 0.0 | 0.00 | 0.02 | 0.00 | 95 | 1020.3 |
| 20260831094025 | 53 | 329 | 0.0 | 0.0 | 0.00 | 0.02 | 0.00 | 95 | 1020.3 |
| 20260831093926 | 53 | 329 | 0.0 | 0.0 | 0.00 | 0.02 | 0.00 | 95 | 1020.3 |
| 20260831093728 | 53 | 329 | 0.0 | 0.0 | 0.00 | 0.02 | 0.00 | 95 | 1020.3 |
| 20260831093649 | 53 | 329 | 0.0 | 0.0 | 0.00 | 0.02 | 0.00 | 95 | 1020.3 |
| 20260831093532 | 53 | 329 | 0.0 | 0.0 | 0.00 | 0.02 | 0.00 | 95 | 1020.3 |
| 20260831093453 | 53 | 329 | 0.0 | 0.0 | 0.00 | 0.02 | 0.00 | 94 | 1020.3 |
| 20260831093418 | 53 | 329 | 0.0 | 0.0 | 0.00 | 0.02 | 0.00 | 94 | 1020.3 |
| 20260831093258 | 53 | 329 | 0.0 | 0.0 | 0.00 | 0.02 | 0.00 | 94 | 1020.3 |
| 20260831093140 | 53 | 329 | 0.0 | 0.0 | 0.00 | 0.02 | 0.00 | 94 | 1020.2 |
| 20260831093043 | 53 | 329 | 0.0 | 0.0 | 0.00 | 0.02 | 0.00 | 94 | 1020.3 |
| 20260831093003 | 53 | 329 | 0.0 | 0.0 | 0.00 | 0.02 | 0.00 | 94 | 1020.3 |
| 20260831092923 | 54 | 329 | 0.0 | 0.0 | 0.00 | 0.02 | 0.00 | 94 | 1020.3 |
| 20260831092806 | 54 | 329 | 0.0 | 0.0 | 0.00 | 0.02 | 0.00 | 94 | 1020.3 |
| 20260831092728 | 54 | 329 | 0.0 | 0.0 | 0.00 | 0.02 | 0.00 | 94 | 1020.3 |
| 20260831092559 | 54 | 329 | 0.0 | 0.0 | 0.00 | 0.02 | 0.00 | 94 | 1020.2 |
| 20260831092513 | 54 | 329 | 0.0 | 0.0 | 0.00 | 0.02 | 0.00 | 94 | 1020.2 |
| 20260831092341 | 54 | 329 | 0.0 | 0.0 | 0.00 | 0.02 | 0.00 | 94 | 1020.2 |
| 20260831092240 | 54 | 329 | 0.0 | 0.0 | 0.00 | 0.02 | 0.00 | 94 | 1020.2 |
| 20260831092117 | 54 | 329 | 0.0 | 0.0 | 0.00 | 0.02 | 0.00 | 94 | 1020.2 |
| 20260831092030 | 54 | 329 | 0.0 | 0.0 | 0.00 | 0.02 | 0.00 | 94 | 1020.2 |
| 20260831091900 | 54 | 329 | 0.0 | 0.0 | 0.00 | 0.02 | 0.00 | 94 | 1020.1 |
| 20260831091823 | 54 | 329 | 0.0 | 0.0 | 0.00 | 0.02 | 0.00 | 94 | 1020.1 |
| 20260831091625 | 54 | 329 | 0.0 | 0.0 | 0.00 | 0.02 | 0.00 | 94 | 1020.1 |
| 20260831091548 | 54 | 329 | 0.0 | 0.0 | 0.00 | 0.02 | 0.00 | 94 | 1020.1 |
| 20260831091453 | 54 | 329 | 0.0 | 0.0 | 0.00 | 0.02 | 0.00 | 94 | 1020.1 |
| 20260831091334 | 54 | 329 | 0.0 | 0.0 | 0.00 | 0.02 | 0.00 | 94 | 1020.1 |
| 20260831091247 | 54 | 329 | 0.0 | 0.0 | 0.00 | 0.02 | 0.00 | 94 | 1020.1 |
| 20260831091216 | 54 | 329 | 0.0 | 0.0 | 0.00 | 0.02 | 0.00 | 94 | 1020.1 |
| 20260831090914 | 54 | 329 | 0.0 | 0.0 | 0.00 | 0.02 | 0.00 | 94 | 1020.1 |
| 20260831090744 | 54 | 329 | 0.0 | 0.0 | 0.00 | 0.02 | 0.00 | 94 | 1020.1 |
| 20260831090640 | 54 | 329 | 0.0 | 0.0 | 0.00 | 0.02 | 0.00 | 94 | 1020.1 |
| 20260831090602 | 54 | 329 | 0.0 | 0.0 | 0.00 | 0.02 | 0.00 | 94 | 1020.1 |
| 20260831090505 | 54 | 329 | 0.0 | 0.0 | 0.00 | 0.02 | 0.00 | 94 | 1020.1 |
| 20260831090405 | 54 | 329 | 0.0 | 0.0 | 0.00 | 0.02 | 0.00 | 94 | 1020.1 |
| 20260831090327 | 54 | 329 | 0.0 | 0.0 | 0.00 | 0.02 | 0.00 | 94 | 1020.1 |
| 20260831090139 | 54 | 329 | 0.0 | 0.0 | 0.00 | 0.02 | 0.00 | 94 | 1020.0 |
| 20260831090104 | 54 | 329 | 0.0 | 0.0 | 0.00 | 0.02 | 0.00 | 94 | 1020.0 |
| 20260831090008 | 54 | 329 | 0.0 | 0.0 | 0.00 | 0.02 | 0.00 | 94 | 1020.0 |
| 20260831085929 | 54 | 329 | 0.0 | 0.0 | 0.00 | 0.02 | 0.00 | 94 | 1020.0 |
| 20260831085800 | 54 | 329 | 0.0 | 0.0 | 0.00 | 0.02 | 0.00 | 94 | 1020.0 |
| 20260831085714 | 54 | 329 | 0.0 | 0.0 | 0.00 | 0.02 | 0.00 | 94 | 1020.0 |
| 20260831085544 | 54 | 329 | 0.0 | 0.0 | 0.00 | 0.02 | 0.00 | 94 | 1019.9 |
| 20260831085443 | 54 | 329 | 0.0 | 0.0 | 0.00 | 0.02 | 0.00 | 94 | 1019.9 |
| 20260831085313 | 55 | 329 | 0.0 | 0.0 | 0.00 | 0.02 | 0.00 | 94 | 1019.9 |
| 20260831085226 | 55 | 329 | 0.0 | 0.0 | 0.00 | 0.02 | 0.00 | 94 | 1019.9 |
| 20260831085035 | 55 | 329 | 0.0 | 0.0 | 0.00 | 0.02 | 0.00 | 94 | 1019.9 |
| 20260831084931 | 55 | 329 | 0.0 | 0.0 | 0.00 | 0.02 | 0.00 | 94 | 1019.9 |
| 20260831084856 | 55 | 329 | 0.0 | 0.0 | 0.00 | 0.02 | 0.00 | 94 | 1019.9 |
| 20260831084800 | 55 | 329 | 0.0 | 0.0 | 0.00 | 0.02 | 0.00 | 94 | 1019.9 |
| 20260831084721 | 55 | 329 | 0.0 | 0.0 | 0.00 | 0.02 | 0.00 | 94 | 1019.9 |
| 20260831084524 | 55 | 329 | 0.0 | 0.0 | 0.00 | 0.02 | 0.00 | 94 | 1019.9 |
| 20260831084425 | 55 | 329 | 0.0 | 0.0 | 0.00 | 0.02 | 0.00 | 94 | 1019.9 |
| 20260831084329 | 55 | 329 | 0.0 | 0.0 | 0.00 | 0.02 | 0.00 | 94 | 1019.9 |
| 20260831084249 | 55 | 329 | 0.0 | 0.0 | 0.00 | 0.02 | 0.00 | 94 | 1019.9 |
| 20260831084119 | 55 | 329 | 0.0 | 0.0 | 0.00 | 0.02 | 0.00 | 94 | 1019.9 |
| 20260831084032 | 55 | 329 | 0.0 | 0.0 | 0.00 | 0.02 | 0.00 | 94 | 1019.9 |
| 20260831083903 | 55 | 329 | 0.0 | 0.0 | 0.00 | 0.02 | 0.00 | 94 | 1019.9 |
| 20260831083824 | 55 | 329 | 0.0 | 0.0 | 0.00 | 0.02 | 0.00 | 94 | 1019.9 |
| 20260831083631 | 55 | 329 | 0.0 | 0.0 | 0.00 | 0.02 | 0.00 | 94 | 1019.9 |
| 20260831083533 | 55 | 329 | 0.0 | 0.0 | 0.00 | 0.02 | 0.00 | 94 | 1019.9 |
| 20260831083437 | 55 | 329 | 0.0 | 0.0 | 0.00 | 0.02 | 0.00 | 94 | 1019.9 |
| 20260831083358 | 55 | 329 | 0.0 | 0.0 | 0.00 | 0.02 | 0.00 | 94 | 1019.9 |
| 20260831083319 | 55 | 329 | 0.0 | 0.0 | 0.00 | 0.02 | 0.00 | 94 | 1019.9 |
| 20260831083201 | 55 | 329 | 0.0 | 0.0 | 0.00 | 0.02 | 0.00 | 94 | 1019.9 |
| 20260831083122 | 55 | 329 | 0.0 | 0.0 | 0.00 | 0.02 | 0.00 | 94 | 1019.9 |
| 20260831082925 | 55 | 329 | 0.0 | 0.0 | 0.00 | 0.02 | 0.00 | 94 | 1020.0 |
| 20260831082826 | 55 | 329 | 0.0 | 0.0 | 0.00 | 0.02 | 0.00 | 94 | 1019.9 |
| 20260831082733 | 55 | 329 | 0.0 | 0.0 | 0.00 | 0.02 | 0.00 | 94 | 1020.0 |
| 20260831082653 | 55 | 329 | 0.0 | 0.0 | 0.00 | 0.02 | 0.00 | 94 | 1020.0 |
| 20260831082523 | 55 | 329 | 0.0 | 0.0 | 0.00 | 0.02 | 0.00 | 94 | 1020.0 |
| 20260831082416 | 55 | 329 | 0.0 | 0.0 | 0.00 | 0.02 | 0.00 | 94 | 1020.0 |
| 20260831082224 | 55 | 329 | 0.0 | 0.0 | 0.00 | 0.02 | 0.00 | 94 | 1020.0 |
| 20260831082125 | 55 | 329 | 0.0 | 0.0 | 0.00 | 0.02 | 0.00 | 94 | 1020.0 |
| 20260831081928 | 56 | 329 | 0.0 | 0.0 | 0.00 | 0.02 | 0.00 | 94 | 1020.1 |
| 20260831081849 | 56 | 329 | 0.0 | 0.0 | 0.00 | 0.02 | 0.00 | 94 | 1020.0 |
| 20260831081743 | 56 | 329 | 0.0 | 0.0 | 0.00 | 0.02 | 0.00 | 94 | 1020.0 |
| 20260831081703 | 56 | 329 | 0.0 | 0.0 | 0.00 | 0.02 | 0.00 | 94 | 1020.0 |
| 20260831081625 | 56 | 329 | 0.0 | 0.0 | 0.00 | 0.02 | 0.00 | 94 | 1020.0 |
| 20260831081512 | 56 | 329 | 0.0 | 0.0 | 0.00 | 0.02 | 0.00 | 94 | 1020.0 |
| 20260831081432 | 56 | 329 | 0.0 | 0.0 | 0.00 | 0.02 | 0.00 | 94 | 1020.0 |
| 20260831081302 | 56 | 329 | 0.0 | 0.0 | 0.00 | 0.02 | 0.00 | 94 | 1020.0 |
| 20260831081217 | 56 | 329 | 0.0 | 0.0 | 0.00 | 0.02 | 0.00 | 94 | 1020.0 |
| 20260831081037 | 56 | 329 | 0.0 | 0.0 | 0.00 | 0.02 | 0.00 | 94 | 1020.0 |
| 20260831080950 | 56 | 329 | 0.0 | 0.0 | 0.00 | 0.02 | 0.00 | 94 | 1020.0 |
| 20260831080819 | 56 | 329 | 0.0 | 0.0 | 0.00 | 0.02 | 0.00 | 94 | 1020.0 |
| 20260831080740 | 56 | 329 | 0.0 | 0.0 | 0.00 | 0.02 | 0.00 | 94 | 1020.0 |
| 20260831080541 | 56 | 329 | 0.0 | 0.0 | 0.00 | 0.02 | 0.00 | 94 | 1019.9 |
| 20260831080503 | 56 | 329 | 0.0 | 0.0 | 0.00 | 0.02 | 0.00 | 94 | 1019.9 |
| 20260831080406 | 56 | 329 | 0.0 | 0.0 | 0.00 | 0.02 | 0.00 | 94 | 1019.9 |
| 20260831080330 | 56 | 329 | 0.0 | 0.0 | 0.00 | 0.02 | 0.00 | 94 | 1019.9 |
| 20260831080142 | 56 | 329 | 0.0 | 0.0 | 0.00 | 0.02 | 0.00 | 94 | 1019.9 |
| 20260831080034 | 56 | 329 | 0.0 | 0.0 | 0.00 | 0.02 | 0.00 | 94 | 1020.0 |
| 20260831075957 | 56 | 329 | 0.0 | 0.0 | 0.00 | 0.02 | 0.00 | 94 | 1019.9 |
| 20260831075900 | 56 | 329 | 0.0 | 0.0 | 0.00 | 0.02 | 0.00 | 94 | 1019.9 |
| 20260831075823 | 56 | 329 | 0.0 | 0.0 | 0.00 | 0.02 | 0.00 | 94 | 1019.9 |
| 20260831075631 | 56 | 329 | 0.0 | 0.0 | 0.00 | 0.02 | 0.00 | 94 | 1019.9 |
| 20260831075534 | 56 | 329 | 0.0 | 0.0 | 0.00 | 0.02 | 0.00 | 94 | 1019.9 |
| 20260831075343 | 56 | 329 | 0.0 | 0.0 | 0.00 | 0.02 | 0.00 | 94 | 1019.9 |
| 20260831075258 | 56 | 329 | 0.0 | 0.0 | 0.00 | 0.02 | 0.00 | 94 | 1019.9 |
| 20260831075130 | 56 | 329 | 0.0 | 0.0 | 0.00 | 0.02 | 0.00 | 94 | 1019.9 |
| 20260831075031 | 56 | 329 | 0.0 | 0.0 | 0.00 | 0.02 | 0.00 | 94 | 1019.9 |
| 20260831074852 | 56 | 329 | 0.0 | 0.0 | 0.00 | 0.02 | 0.00 | 94 | 1019.9 |
| 20260831074824 | 57 | 329 | 0.0 | 0.0 | 0.00 | 0.02 | 0.00 | 94 | 1019.9 |
| 20260831074654 | 57 | 329 | 0.0 | 0.0 | 0.00 | 0.02 | 0.00 | 94 | 1019.8 |
| 20260831074546 | 57 | 329 | 0.0 | 0.0 | 0.00 | 0.02 | 0.00 | 94 | 1019.9 |
| 20260831074335 | 57 | 329 | 0.0 | 0.0 | 0.00 | 0.02 | 0.00 | 94 | 1019.8 |
| 20260831074247 | 57 | 329 | 0.0 | 0.0 | 0.00 | 0.02 | 0.00 | 94 | 1019.8 |
| 20260831074118 | 57 | 329 | 0.0 | 0.0 | 0.00 | 0.02 | 0.00 | 94 | 1019.8 |
| 20260831074039 | 57 | 329 | 0.0 | 0.0 | 0.00 | 0.02 | 0.00 | 94 | 1019.7 |
| 20260831073848 | 57 | 329 | 0.0 | 0.0 | 0.00 | 0.02 | 0.00 | 94 | 1019.8 |
| 20260831073746 | 57 | 329 | 0.0 | 0.0 | 0.00 | 0.02 | 0.00 | 94 | 1019.7 |
| 20260831073708 | 57 | 329 | 0.0 | 0.0 | 0.00 | 0.02 | 0.00 | 94 | 1019.7 |
| 20260831073612 | 57 | 329 | 0.0 | 0.0 | 0.00 | 0.02 | 0.00 | 94 | 1019.7 |
| 20260831073533 | 57 | 329 | 0.0 | 0.0 | 0.00 | 0.02 | 0.00 | 94 | 1019.7 |
| 20260831073404 | 57 | 329 | 0.0 | 0.0 | 0.00 | 0.02 | 0.00 | 94 | 1019.7 |
| 20260831073319 | 57 | 329 | 0.0 | 0.0 | 0.00 | 0.02 | 0.00 | 94 | 1019.7 |
| 20260831073128 | 57 | 329 | 0.0 | 0.0 | 0.00 | 0.02 | 0.00 | 94 | 1019.6 |
| 20260831073042 | 57 | 329 | 0.0 | 0.0 | 0.00 | 0.02 | 0.00 | 94 | 1019.6 |
| 20260831072912 | 57 | 329 | 0.0 | 0.0 | 0.00 | 0.02 | 0.00 | 94 | 1019.6 |
| 20260831072834 | 57 | 329 | 0.0 | 0.0 | 0.00 | 0.02 | 0.00 | 94 | 1019.6 |
| 20260831072658 | 57 | 329 | 0.0 | 0.0 | 0.00 | 0.02 | 0.00 | 94 | 1019.6 |
| 20260831072619 | 57 | 329 | 0.0 | 0.0 | 0.00 | 0.02 | 0.00 | 94 | 1019.6 |
| 20260831072433 | 57 | 329 | 0.0 | 0.0 | 0.00 | 0.02 | 0.00 | 94 | 1019.6 |
| 20260831072329 | 57 | 329 | 0.0 | 0.0 | 0.00 | 0.02 | 0.00 | 94 | 1019.6 |
| 20260831072251 | 57 | 329 | 0.0 | 0.0 | 0.00 | 0.02 | 0.00 | 94 | 1019.6 |
| 20260831072154 | 57 | 329 | 0.0 | 0.0 | 0.00 | 0.02 | 0.00 | 94 | 1019.6 |
| 20260831072116 | 57 | 329 | 0.0 | 0.0 | 0.00 | 0.02 | 0.00 | 94 | 1019.6 |
| 20260831071946 | 57 | 329 | 0.0 | 0.0 | 0.00 | 0.02 | 0.00 | 94 | 1019.6 |
| 20260831071841 | 57 | 329 | 0.0 | 0.0 | 0.00 | 0.02 | 0.00 | 94 | 1019.6 |
| 20260831071723 | 57 | 329 | 0.0 | 0.0 | 0.00 | 0.02 | 0.00 | 94 | 1019.6 |
| 20260831071645 | 57 | 329 | 0.0 | 0.0 | 0.00 | 0.02 | 0.00 | 94 | 1019.5 |
| 20260831071519 | 57 | 329 | 0.0 | 0.0 | 0.00 | 0.02 | 0.00 | 94 | 1019.5 |
| 20260831071429 | 57 | 329 | 0.0 | 0.0 | 0.00 | 0.02 | 0.00 | 94 | 1019.5 |
| 20260831071240 | 58 | 329 | 0.0 | 0.0 | 0.00 | 0.02 | 0.00 | 94 | 1019.5 |
| 20260831071153 | 58 | 329 | 0.0 | 0.0 | 0.00 | 0.02 | 0.00 | 93 | 1019.5 |
| 20260831070942 | 58 | 329 | 0.0 | 0.0 | 0.00 | 0.02 | 0.00 | 93 | 1019.5 |
| 20260831070857 | 58 | 329 | 0.0 | 0.0 | 0.00 | 0.02 | 0.00 | 93 | 1019.5 |
| 20260831070716 | 58 | 329 | 0.0 | 0.0 | 0.00 | 0.02 | 0.00 | 93 | 1019.5 |
| 20260831070616 | 58 | 329 | 0.0 | 0.0 | 0.00 | 0.02 | 0.00 | 93 | 1019.5 |
| 20260831070446 | 58 | 329 | 0.0 | 0.0 | 0.00 | 0.02 | 0.00 | 93 | 1019.5 |
| 20260831070324 | 58 | 329 | 0.0 | 0.0 | 0.00 | 0.02 | 0.00 | 93 | 1019.4 |
| 20260831070228 | 58 | 329 | 0.0 | 0.0 | 0.00 | 0.02 | 0.00 | 93 | 1019.4 |
| 20260831070148 | 58 | 329 | 0.0 | 0.0 | 0.00 | 0.02 | 0.00 | 93 | 1019.4 |
| 20260831070018 | 58 | 329 | 0.0 | 0.0 | 0.00 | 0.02 | 0.00 | 94 | 1019.4 |
| 20260831065931 | 58 | 329 | 0.0 | 0.0 | 0.00 | 0.02 | 0.00 | 93 | 1019.4 |
| 20260831065801 | 58 | 329 | 0.0 | 0.0 | 0.00 | 0.02 | 0.00 | 94 | 1019.3 |
| 20260831065700 | 58 | 329 | 0.0 | 0.0 | 0.00 | 0.02 | 0.00 | 94 | 1019.4 |
| 20260831065541 | 58 | 329 | 0.0 | 0.0 | 0.00 | 0.02 | 0.00 | 94 | 1019.3 |
| 20260831065441 | 58 | 329 | 0.0 | 0.0 | 0.00 | 0.02 | 0.00 | 94 | 1019.3 |
| 20260831065310 | 58 | 329 | 0.0 | 0.0 | 0.00 | 0.02 | 0.00 | 94 | 1019.3 |
| 20260831065224 | 59 | 329 | 0.0 | 0.0 | 0.00 | 0.02 | 0.00 | 94 | 1019.3 |
| 20260831065033 | 59 | 329 | 0.0 | 0.0 | 0.00 | 0.02 | 0.00 | 94 | 1019.2 |
| 20260831064951 | 59 | 329 | 0.0 | 0.0 | 0.00 | 0.02 | 0.00 | 94 | 1019.2 |
| 20260831064820 | 59 | 329 | 0.0 | 0.0 | 0.00 | 0.02 | 0.00 | 94 | 1019.2 |
| 20260831064741 | 59 | 329 | 0.0 | 0.0 | 0.00 | 0.02 | 0.00 | 94 | 1019.3 |
| 20260831064549 | 59 | 329 | 0.0 | 0.0 | 0.00 | 0.02 | 0.00 | 93 | 1019.3 |
| 20260831064444 | 59 | 329 | 0.0 | 0.0 | 0.00 | 0.02 | 0.00 | 93 | 1019.2 |
| 20260831064406 | 59 | 329 | 0.0 | 0.0 | 0.00 | 0.02 | 0.00 | 93 | 1019.2 |
| 20260831064310 | 59 | 329 | 0.0 | 0.0 | 0.00 | 0.02 | 0.00 | 93 | 1019.2 |
| 20260831064231 | 59 | 329 | 0.0 | 0.0 | 0.00 | 0.02 | 0.00 | 93 | 1019.2 |
| 20260831064035 | 59 | 329 | 0.0 | 0.0 | 0.00 | 0.02 | 0.00 | 93 | 1019.2 |
| 20260831063937 | 59 | 329 | 0.0 | 0.0 | 0.00 | 0.02 | 0.00 | 93 | 1019.2 |
| 20260831063844 | 59 | 329 | 0.0 | 0.0 | 0.00 | 0.02 | 0.00 | 93 | 1019.2 |
| 20260831063805 | 59 | 329 | 0.0 | 0.0 | 0.00 | 0.02 | 0.00 | 93 | 1019.2 |
| 20260831063634 | 59 | 329 | 0.0 | 0.0 | 0.00 | 0.02 | 0.00 | 93 | 1019.2 |
| 20260831063527 | 59 | 329 | 0.0 | 0.0 | 0.00 | 0.02 | 0.00 | 93 | 1019.2 |
| 20260831063337 | 59 | 329 | 0.0 | 0.0 | 0.00 | 0.02 | 0.00 | 93 | 1019.2 |
| 20260831063250 | 60 | 329 | 0.0 | 0.0 | 0.00 | 0.02 | 0.00 | 93 | 1019.2 |
| 20260831063120 | 60 | 329 | 0.0 | 0.0 | 0.00 | 0.02 | 0.00 | 93 | 1019.2 |
| 20260831063021 | 60 | 329 | 0.0 | 0.0 | 0.00 | 0.02 | 0.00 | 93 | 1019.2 |
| 20260831062823 | 60 | 329 | 0.0 | 0.0 | 0.00 | 0.02 | 0.00 | 93 | 1019.3 |
| 20260831062743 | 60 | 329 | 0.0 | 0.0 | 0.00 | 0.02 | 0.00 | 93 | 1019.3 |
| 20260831062646 | 60 | 329 | 0.0 | 0.0 | 0.00 | 0.02 | 0.00 | 93 | 1019.3 |
| 20260831062530 | 60 | 329 | 0.0 | 0.0 | 0.00 | 0.02 | 0.00 | 94 | 1019.3 |
| 20260831062452 | 60 | 329 | 0.0 | 0.0 | 0.00 | 0.02 | 0.00 | 94 | 1019.3 |
| 20260831062355 | 60 | 329 | 0.0 | 0.9 | 0.00 | 0.02 | 0.00 | 94 | 1019.3 |
| 20260831062326 | 60 | 329 | 0.0 | 1.7 | 0.00 | 0.02 | 0.00 | 94 | 1019.3 |
| 20260831062135 | 60 | 329 | 0.0 | 1.7 | 0.00 | 0.02 | 0.00 | 94 | 1019.3 |
| 20260831062028 | 60 | 329 | 0.0 | 1.7 | 0.00 | 0.02 | 0.00 | 94 | 1019.3 |
| 20260831061857 | 60 | 329 | 0.0 | 1.7 | 0.00 | 0.02 | 0.00 | 94 | 1019.3 |
| 20260831061819 | 61 | 329 | 0.0 | 1.7 | 0.00 | 0.02 | 0.00 | 94 | 1019.3 |
| 20260831061641 | 61 | 329 | 0.0 | 1.7 | 0.00 | 0.02 | 0.00 | 94 | 1019.3 |
| 20260831061543 | 61 | 329 | 0.9 | 1.7 | 0.00 | 0.02 | 0.00 | 94 | 1019.3 |
| 20260831061429 | 61 | 329 | 0.9 | 2.6 | 0.00 | 0.02 | 0.00 | 94 | 1019.3 |
| 20260831061351 | 61 | 329 | 0.9 | 2.6 | 0.00 | 0.02 | 0.00 | 94 | 1019.3 |
| 20260831061314 | 61 | 329 | 0.9 | 2.6 | 0.00 | 0.02 | 0.00 | 94 | 1019.3 |
| 20260831061216 | 61 | 329 | 0.9 | 2.6 | 0.00 | 0.02 | 0.00 | 94 | 1019.3 |
| 20260831061136 | 61 | 329 | 0.9 | 2.6 | 0.00 | 0.02 | 0.00 | 94 | 1019.3 |
| 20260831061017 | 61 | 329 | 0.9 | 2.6 | 0.00 | 0.02 | 0.00 | 94 | 1019.3 |
| 20260831060931 | 61 | 329 | 0.9 | 2.6 | 0.00 | 0.02 | 0.00 | 94 | 1019.3 |
| 20260831060740 | 61 | 329 | 1.7 | 2.6 | 0.00 | 0.02 | 0.00 | 94 | 1019.3 |
| 20260831060654 | 61 | 329 | 1.7 | 2.6 | 0.00 | 0.02 | 0.00 | 94 | 1019.3 |
| 20260831060502 | 61 | 327 | 1.7 | 2.6 | 0.00 | 0.02 | 0.00 | 94 | 1019.4 |
| 20260831060424 | 61 | 327 | 1.7 | 2.6 | 0.00 | 0.02 | 0.00 | 94 | 1019.4 |
| 20260831060232 | 61 | 327 | 0.0 | 1.7 | 0.00 | 0.02 | 0.00 | 94 | 1019.4 |
| 20260831060152 | 61 | 327 | 0.0 | 0.0 | 0.00 | 0.02 | 0.00 | 94 | 1019.5 |
| 20260831060055 | 61 | 327 | 0.0 | 0.0 | 0.00 | 0.02 | 0.00 | 94 | 1019.5 |
| 20260831060016 | 61 | 327 | 0.0 | 0.0 | 0.00 | 0.02 | 0.00 | 94 | 1019.5 |
| 20260831055846 | 61 | 327 | 0.0 | 0.0 | 0.00 | 0.02 | 0.00 | 95 | 1019.5 |
| 20260831055740 | 61 | 327 | 0.0 | 0.0 | 0.00 | 0.02 | 0.00 | 95 | 1019.5 |
| 20260831055640 | 62 | 327 | 0.0 | 0.0 | 0.00 | 0.02 | 0.00 | 95 | 1019.5 |
| 20260831055533 | 62 | 327 | 0.0 | 0.0 | 0.00 | 0.02 | 0.00 | 95 | 1019.5 |
| 20260831055455 | 62 | 327 | 0.0 | 0.0 | 0.00 | 0.02 | 0.00 | 95 | 1019.5 |
| 20260831055323 | 62 | 327 | 0.0 | 0.0 | 0.00 | 0.02 | 0.00 | 95 | 1019.5 |
| 20260831055244 | 62 | 327 | 0.0 | 0.0 | 0.00 | 0.02 | 0.00 | 95 | 1019.5 |
| 20260831055127 | 62 | 327 | 0.0 | 0.0 | 0.00 | 0.02 | 0.00 | 95 | 1019.5 |
| 20260831055049 | 62 | 327 | 0.0 | 0.0 | 0.00 | 0.02 | 0.00 | 95 | 1019.5 |
| 20260831055010 | 62 | 327 | 0.0 | 0.0 | 0.00 | 0.02 | 0.00 | 95 | 1019.5 |
| 20260831054854 | 62 | 327 | 0.0 | 0.0 | 0.00 | 0.02 | 0.00 | 95 | 1019.5 |
| 20260831054815 | 62 | 327 | 0.0 | 0.0 | 0.00 | 0.02 | 0.00 | 95 | 1019.5 |
| 20260831054645 | 62 | 327 | 0.0 | 0.0 | 0.00 | 0.02 | 0.00 | 95 | 1019.5 |
| 20260831054541 | 62 | 327 | 0.0 | 0.0 | 0.00 | 0.02 | 0.00 | 95 | 1019.5 |
| 20260831054424 | 62 | 327 | 0.0 | 0.0 | 0.00 | 0.02 | 0.00 | 95 | 1019.6 |
| 20260831054346 | 62 | 327 | 0.0 | 0.0 | 0.00 | 0.02 | 0.00 | 95 | 1019.6 |
| 20260831054219 | 62 | 327 | 0.0 | 0.0 | 0.00 | 0.02 | 0.00 | 95 | 1019.6 |
| 20260831054131 | 62 | 327 | 0.0 | 0.0 | 0.00 | 0.02 | 0.00 | 95 | 1019.6 |
| 20260831054001 | 62 | 327 | 0.0 | 0.0 | 0.00 | 0.02 | 0.00 | 95 | 1019.6 |
| 20260831053842 | 62 | 327 | 0.0 | 0.0 | 0.00 | 0.02 | 0.00 | 95 | 1019.5 |
| 20260831053726 | 62 | 327 | 0.0 | 0.0 | 0.00 | 0.02 | 0.00 | 95 | 1019.5 |
| 20260831053647 | 62 | 327 | 0.0 | 0.0 | 0.00 | 0.02 | 0.00 | 95 | 1019.5 |
| 20260831053529 | 62 | 327 | 0.0 | 0.0 | 0.00 | 0.02 | 0.00 | 95 | 1019.5 |
| 20260831053450 | 62 | 327 | 0.0 | 0.0 | 0.00 | 0.02 | 0.00 | 95 | 1019.5 |
| 20260831053318 | 62 | 327 | 0.0 | 0.0 | 0.00 | 0.02 | 0.00 | 95 | 1019.5 |
| 20260831053233 | 62 | 327 | 0.0 | 0.0 | 0.00 | 0.02 | 0.00 | 95 | 1019.5 |
| 20260831053047 | 62 | 327 | 0.0 | 0.0 | 0.00 | 0.02 | 0.00 | 95 | 1019.5 |
| 20260831052942 | 62 | 327 | 0.0 | 0.0 | 0.00 | 0.02 | 0.00 | 95 | 1019.5 |
| 20260831052827 | 62 | 327 | 0.0 | 0.0 | 0.00 | 0.02 | 0.00 | 95 | 1019.5 |
| 20260831052747 | 62 | 327 | 0.0 | 0.0 | 0.00 | 0.02 | 0.00 | 95 | 1019.5 |
| 20260831052618 | 62 | 327 | 0.0 | 0.0 | 0.00 | 0.02 | 0.00 | 95 | 1019.5 |
| 20260831052531 | 62 | 327 | 0.0 | 0.0 | 0.00 | 0.02 | 0.00 | 95 | 1019.5 |
| 20260831052342 | 62 | 327 | 0.0 | 0.0 | 0.00 | 0.02 | 0.00 | 95 | 1019.5 |
| 20260831052237 | 62 | 327 | 0.0 | 0.0 | 0.00 | 0.02 | 0.00 | 95 | 1019.5 |
| 20260831052123 | 62 | 327 | 0.0 | 0.0 | 0.00 | 0.02 | 0.00 | 95 | 1019.4 |
| 20260831052045 | 62 | 327 | 0.0 | 0.0 | 0.00 | 0.02 | 0.00 | 95 | 1019.4 |
| 20260831051916 | 62 | 327 | 0.0 | 0.0 | 0.00 | 0.02 | 0.00 | 95 | 1019.4 |
| 20260831051830 | 62 | 327 | 0.0 | 0.0 | 0.00 | 0.02 | 0.00 | 95 | 1019.4 |
| 20260831051640 | 62 | 300 | 0.0 | 0.0 | 0.00 | 0.02 | 0.00 | 95 | 1019.4 |
| 20260831051553 | 62 | 300 | 0.0 | 0.0 | 0.00 | 0.02 | 0.00 | 95 | 1019.4 |
| 20260831051401 | 62 | 300 | 0.0 | 0.0 | 0.00 | 0.02 | 0.00 | 95 | 1019.5 |
| 20260831051242 | 62 | 300 | 0.0 | 0.0 | 0.00 | 0.02 | 0.00 | 95 | 1019.5 |
| 20260831051144 | 62 | 300 | 0.0 | 0.0 | 0.00 | 0.02 | 0.00 | 95 | 1019.5 |
| 20260831051107 | 62 | 300 | 0.0 | 0.0 | 0.00 | 0.02 | 0.00 | 95 | 1019.5 |
| 20260831051028 | 62 | 300 | 0.0 | 0.0 | 0.00 | 0.02 | 0.00 | 95 | 1019.5 |
| 20260831050914 | 62 | 300 | 0.0 | 0.0 | 0.00 | 0.02 | 0.00 | 95 | 1019.4 |
| 20260831050835 | 62 | 300 | 0.0 | 0.0 | 0.00 | 0.02 | 0.00 | 95 | 1019.4 |
| 20260831050705 | 62 | 300 | 0.0 | 0.0 | 0.00 | 0.02 | 0.00 | 95 | 1019.4 |
| 20260831050618 | 62 | 300 | 0.0 | 0.0 | 0.00 | 0.02 | 0.00 | 95 | 1019.4 |
| 20260831050429 | 62 | 300 | 0.0 | 0.0 | 0.00 | 0.02 | 0.00 | 95 | 1019.4 |
| 20260831050344 | 62 | 300 | 0.0 | 0.0 | 0.00 | 0.02 | 0.00 | 95 | 1019.4 |
| 20260831050213 | 62 | 300 | 0.0 | 0.0 | 0.00 | 0.02 | 0.00 | 95 | 1019.4 |
| 20260831050135 | 62 | 300 | 0.0 | 0.0 | 0.00 | 0.02 | 0.00 | 95 | 1019.4 |
| 20260831045938 | 62 | 300 | 0.0 | 0.0 | 0.00 | 0.02 | 0.00 | 95 | 1019.4 |
| 20260831045859 | 62 | 300 | 0.0 | 0.0 | 0.00 | 0.02 | 0.00 | 95 | 1019.4 |
| 20260831045725 | 62 | 300 | 0.0 | 0.0 | 0.00 | 0.02 | 0.00 | 95 | 1019.4 |
| 20260831045646 | 62 | 300 | 0.0 | 0.0 | 0.00 | 0.02 | 0.00 | 95 | 1019.4 |
| 20260831045428 | 62 | 300 | 0.0 | 0.0 | 0.00 | 0.02 | 0.00 | 95 | 1019.4 |
| 20260831045349 | 62 | 300 | 0.0 | 0.0 | 0.00 | 0.02 | 0.00 | 95 | 1019.4 |
| 20260831045251 | 62 | 300 | 0.0 | 0.0 | 0.00 | 0.02 | 0.00 | 95 | 1019.4 |
| 20260831045212 | 62 | 300 | 0.0 | 0.0 | 0.00 | 0.02 | 0.00 | 95 | 1019.4 |
| 20260831044930 | 62 | 300 | 0.0 | 0.0 | 0.00 | 0.02 | 0.00 | 95 | 1019.4 |
| 20260831044824 | 62 | 300 | 0.0 | 0.0 | 0.00 | 0.02 | 0.00 | 95 | 1019.4 |
| 20260831044653 | 62 | 300 | 0.0 | 0.0 | 0.00 | 0.02 | 0.00 | 95 | 1019.3 |
| 20260831044614 | 62 | 300 | 0.0 | 0.0 | 0.00 | 0.02 | 0.00 | 95 | 1019.4 |
| 20260831044456 | 62 | 300 | 0.0 | 0.0 | 0.00 | 0.02 | 0.00 | 95 | 1019.4 |
| 20260831044340 | 62 | 300 | 0.0 | 0.0 | 0.00 | 0.02 | 0.00 | 95 | 1019.4 |
| 20260831044301 | 62 | 300 | 0.0 | 0.0 | 0.00 | 0.02 | 0.00 | 95 | 1019.4 |
| 20260831044143 | 62 | 300 | 0.0 | 0.0 | 0.00 | 0.02 | 0.00 | 95 | 1019.4 |
| 20260831044038 | 62 | 300 | 0.0 | 0.0 | 0.00 | 0.02 | 0.00 | 95 | 1019.4 |
| 20260831043934 | 62 | 300 | 0.0 | 0.0 | 0.00 | 0.02 | 0.00 | 95 | 1019.4 |
| 20260831043835 | 62 | 300 | 0.0 | 0.0 | 0.00 | 0.02 | 0.00 | 95 | 1019.4 |
| 20260831043758 | 62 | 300 | 0.0 | 0.0 | 0.00 | 0.02 | 0.00 | 95 | 1019.4 |
| 20260831043701 | 62 | 300 | 0.0 | 0.0 | 0.00 | 0.02 | 0.00 | 95 | 1019.4 |
| 20260831043626 | 62 | 300 | 0.0 | 0.0 | 0.00 | 0.02 | 0.00 | 95 | 1019.4 |
| 20260831043429 | 62 | 300 | 0.0 | 0.0 | 0.00 | 0.02 | 0.00 | 95 | 1019.4 |
| 20260831043331 | 62 | 300 | 0.0 | 0.0 | 0.00 | 0.02 | 0.00 | 95 | 1019.5 |
| 20260831043234 | 62 | 300 | 0.0 | 0.0 | 0.00 | 0.02 | 0.00 | 95 | 1019.5 |
| 20260831043155 | 62 | 300 | 0.0 | 0.0 | 0.00 | 0.02 | 0.00 | 95 | 1019.5 |
| 20260831043005 | 62 | 300 | 0.0 | 0.0 | 0.00 | 0.02 | 0.00 | 95 | 1019.5 |
| 20260831042918 | 62 | 300 | 0.0 | 0.0 | 0.00 | 0.02 | 0.00 | 95 | 1019.5 |
| 20260831042728 | 62 | 300 | 0.0 | 0.0 | 0.00 | 0.02 | 0.00 | 95 | 1019.5 |
| 20260831042623 | 62 | 300 | 0.0 | 0.0 | 0.00 | 0.02 | 0.00 | 95 | 1019.5 |
| 20260831042523 | 62 | 300 | 0.0 | 0.0 | 0.00 | 0.02 | 0.00 | 95 | 1019.5 |
| 20260831042443 | 62 | 300 | 0.0 | 0.0 | 0.00 | 0.02 | 0.00 | 95 | 1019.4 |
| 20260831042313 | 62 | 300 | 0.0 | 0.0 | 0.00 | 0.02 | 0.00 | 95 | 1019.4 |
| 20260831042226 | 62 | 300 | 0.0 | 0.0 | 0.00 | 0.02 | 0.00 | 95 | 1019.4 |
| 20260831042056 | 62 | 300 | 0.0 | 0.0 | 0.00 | 0.02 | 0.00 | 95 | 1019.4 |
| 20260831042017 | 62 | 300 | 0.0 | 0.0 | 0.00 | 0.02 | 0.00 | 95 | 1019.3 |
| 20260831041846 | 62 | 300 | 0.0 | 0.0 | 0.00 | 0.02 | 0.00 | 95 | 1019.3 |
| 20260831041740 | 62 | 300 | 0.0 | 0.0 | 0.00 | 0.02 | 0.00 | 95 | 1019.3 |
| 20260831041640 | 62 | 300 | 0.0 | 0.0 | 0.00 | 0.02 | 0.00 | 95 | 1019.3 |
| 20260831041543 | 62 | 300 | 0.0 | 0.0 | 0.00 | 0.02 | 0.00 | 95 | 1019.3 |
| 20260831041503 | 62 | 300 | 0.0 | 0.0 | 0.00 | 0.02 | 0.00 | 95 | 1019.3 |
| 20260831041317 | 62 | 300 | 0.0 | 0.0 | 0.00 | 0.02 | 0.00 | 95 | 1019.2 |
| 20260831041230 | 62 | 300 | 0.0 | 0.0 | 0.00 | 0.02 | 0.00 | 95 | 1019.2 |
| 20260831041039 | 62 | 300 | 0.0 | 0.0 | 0.00 | 0.02 | 0.00 | 95 | 1019.2 |
| 20260831040939 | 62 | 300 | 0.0 | 0.0 | 0.00 | 0.02 | 0.00 | 95 | 1019.2 |
| 20260831040731 | 62 | 300 | 0.0 | 0.0 | 0.00 | 0.02 | 0.00 | 95 | 1019.1 |
| 20260831040652 | 62 | 300 | 0.0 | 0.0 | 0.00 | 0.02 | 0.00 | 95 | 1019.2 |
| 20260831040555 | 62 | 300 | 0.0 | 0.0 | 0.00 | 0.02 | 0.00 | 95 | 1019.1 |
| 20260831040515 | 62 | 300 | 0.0 | 0.0 | 0.00 | 0.02 | 0.00 | 95 | 1019.1 |
| 20260831040345 | 62 | 300 | 0.0 | 0.0 | 0.00 | 0.02 | 0.00 | 95 | 1019.1 |
| 20260831040259 | 62 | 300 | 0.0 | 0.0 | 0.00 | 0.02 | 0.00 | 95 | 1019.2 |
| 20260831040128 | 62 | 300 | 0.0 | 0.0 | 0.00 | 0.02 | 0.00 | 95 | 1019.1 |
| 20260831040028 | 62 | 300 | 0.0 | 0.0 | 0.00 | 0.02 | 0.00 | 95 | 1019.1 |
| 20260831035901 | 62 | 300 | 0.0 | 0.0 | 0.00 | 0.02 | 0.02 | 94 | 1019.2 |
| 20260831035816 | 62 | 300 | 0.0 | 0.0 | 0.00 | 0.02 | 0.02 | 94 | 1019.2 |
| 20260831035627 | 62 | 300 | 0.0 | 0.0 | 0.00 | 0.02 | 0.02 | 94 | 1019.1 |
| 20260831035522 | 62 | 300 | 0.0 | 0.0 | 0.00 | 0.02 | 0.02 | 94 | 1019.1 |
| 20260831035445 | 62 | 300 | 0.0 | 0.0 | 0.00 | 0.02 | 0.02 | 94 | 1019.1 |
| 20260831035350 | 62 | 300 | 0.0 | 0.0 | 0.00 | 0.02 | 0.02 | 94 | 1019.1 |
| 20260831035310 | 62 | 300 | 0.0 | 0.0 | 0.00 | 0.02 | 0.02 | 94 | 1019.1 |
| 20260831035211 | 62 | 300 | 0.0 | 0.0 | 0.00 | 0.02 | 0.02 | 94 | 1019.0 |
| 20260831035114 | 62 | 300 | 0.0 | 0.0 | 0.00 | 0.02 | 0.02 | 94 | 1019.0 |
| 20260831035035 | 62 | 300 | 0.0 | 0.0 | 0.00 | 0.02 | 0.02 | 94 | 1019.0 |
| 20260831034855 | 62 | 300 | 0.0 | 0.0 | 0.00 | 0.02 | 0.02 | 94 | 1019.0 |
| 20260831034751 | 62 | 300 | 0.0 | 0.0 | 0.00 | 0.02 | 0.02 | 94 | 1019.0 |
| 20260831034620 | 62 | 300 | 0.0 | 0.0 | 0.00 | 0.02 | 0.02 | 94 | 1019.0 |
| 20260831034541 | 62 | 300 | 0.0 | 0.0 | 0.00 | 0.02 | 0.02 | 94 | 1019.0 |
| 20260831034412 | 62 | 300 | 0.0 | 0.0 | 0.00 | 0.02 | 0.02 | 94 | 1018.9 |
| 20260831034316 | 62 | 300 | 0.0 | 0.0 | 0.00 | 0.02 | 0.02 | 94 | 1019.0 |
| 20260831034237 | 62 | 300 | 0.0 | 0.0 | 0.00 | 0.02 | 0.02 | 94 | 1019.0 |
| 20260831034108 | 62 | 300 | 0.0 | 0.0 | 0.00 | 0.02 | 0.02 | 94 | 1018.9 |
| 20260831034023 | 62 | 300 | 0.0 | 0.0 | 0.00 | 0.02 | 0.02 | 94 | 1018.9 |
| 20260831033852 | 62 | 300 | 0.0 | 0.0 | 0.00 | 0.02 | 0.02 | 94 | 1018.9 |
| 20260831033752 | 62 | 300 | 0.0 | 0.0 | 0.00 | 0.02 | 0.02 | 94 | 1018.9 |
| 20260831033636 | 62 | 300 | 0.0 | 0.0 | 0.00 | 0.02 | 0.02 | 94 | 1018.9 |
| 20260831033557 | 62 | 300 | 0.0 | 0.0 | 0.00 | 0.02 | 0.02 | 94 | 1018.8 |
| 20260831033423 | 62 | 300 | 0.0 | 0.0 | 0.00 | 0.02 | 0.02 | 94 | 1018.8 |
| 20260831033344 | 62 | 300 | 0.0 | 0.0 | 0.00 | 0.02 | 0.02 | 94 | 1018.8 |
| 20260831033126 | 62 | 300 | 0.0 | 0.0 | 0.00 | 0.02 | 0.02 | 94 | 1018.8 |
| 20260831033046 | 62 | 300 | 0.0 | 0.0 | 0.00 | 0.02 | 0.02 | 94 | 1018.9 |
| 20260831032930 | 62 | 300 | 0.0 | 0.0 | 0.00 | 0.02 | 0.02 | 94 | 1018.8 |
| 20260831032851 | 62 | 300 | 0.0 | 0.0 | 0.00 | 0.02 | 0.02 | 94 | 1018.9 |
| 20260831032721 | 63 | 300 | 0.0 | 0.0 | 0.00 | 0.02 | 0.02 | 94 | 1018.8 |
| 20260831032634 | 63 | 300 | 0.0 | 0.0 | 0.00 | 0.02 | 0.02 | 94 | 1018.8 |
| 20260831032445 | 63 | 300 | 0.0 | 0.0 | 0.00 | 0.02 | 0.02 | 95 | 1018.7 |
| 20260831032344 | 63 | 300 | 0.0 | 0.0 | 0.00 | 0.02 | 0.02 | 95 | 1018.8 |
| 20260831032306 | 63 | 300 | 0.0 | 0.0 | 0.00 | 0.02 | 0.02 | 94 | 1018.8 |
| 20260831032210 | 63 | 300 | 0.0 | 0.0 | 0.00 | 0.02 | 0.02 | 94 | 1018.8 |
| 20260831032130 | 63 | 300 | 0.0 | 0.0 | 0.00 | 0.02 | 0.02 | 94 | 1018.8 |
| 20260831032002 | 63 | 300 | 0.0 | 0.0 | 0.00 | 0.02 | 0.02 | 94 | 1018.8 |
| 20260831031918 | 63 | 300 | 0.0 | 0.0 | 0.00 | 0.02 | 0.02 | 94 | 1018.7 |
| 20260831031728 | 63 | 300 | 0.0 | 0.0 | 0.00 | 0.02 | 0.02 | 95 | 1018.7 |
| 20260831031642 | 63 | 300 | 0.0 | 0.0 | 0.00 | 0.02 | 0.02 | 95 | 1018.7 |
| 20260831031512 | 63 | 300 | 0.0 | 0.0 | 0.00 | 0.02 | 0.02 | 95 | 1018.6 |
| 20260831031433 | 63 | 300 | 0.0 | 0.0 | 0.00 | 0.02 | 0.02 | 95 | 1018.6 |
| 20260831031240 | 63 | 300 | 0.0 | 0.0 | 0.00 | 0.02 | 0.02 | 95 | 1018.6 |
| 20260831031140 | 63 | 300 | 0.0 | 0.0 | 0.00 | 0.02 | 0.02 | 95 | 1018.6 |
| 20260831031043 | 63 | 300 | 0.0 | 0.0 | 0.00 | 0.02 | 0.02 | 95 | 1018.6 |
| 20260831031003 | 63 | 300 | 0.0 | 0.0 | 0.00 | 0.02 | 0.02 | 95 | 1018.6 |
| 20260831030903 | 63 | 300 | 0.0 | 0.0 | 0.00 | 0.02 | 0.02 | 95 | 1018.7 |
| 20260831030807 | 62 | 300 | 0.0 | 0.0 | 0.00 | 0.02 | 0.02 | 95 | 1018.7 |
| 20260831030727 | 62 | 300 | 0.0 | 0.0 | 0.00 | 0.02 | 0.02 | 95 | 1018.7 |
| 20260831030557 | 62 | 300 | 0.0 | 0.0 | 0.00 | 0.02 | 0.02 | 95 | 1018.7 |
| 20260831030451 | 62 | 300 | 0.0 | 0.0 | 0.00 | 0.02 | 0.02 | 94 | 1018.7 |
| 20260831030240 | 62 | 300 | 0.0 | 0.0 | 0.00 | 0.02 | 0.02 | 95 | 1018.7 |
| 20260831030153 | 62 | 222 | 0.0 | 0.0 | 0.00 | 0.02 | 0.02 | 95 | 1018.7 |
| 20260831030055 | 62 | 222 | 0.0 | 0.0 | 0.00 | 0.02 | 0.02 | 95 | 1018.7 |
| 20260831030017 | 62 | 222 | 0.0 | 0.0 | 0.00 | 0.02 | 0.02 | 95 | 1018.7 |
| 20260831025932 | 62 | 222 | 0.0 | 0.0 | 0.00 | 0.02 | 0.02 | 95 | 1018.7 |
| 20260831025802 | 62 | 222 | 0.0 | 0.0 | 0.00 | 0.02 | 0.02 | 95 | 1018.7 |
| 20260831025701 | 62 | 222 | 0.0 | 0.0 | 0.00 | 0.02 | 0.02 | 95 | 1018.7 |
| 20260831025559 | 62 | 222 | 0.0 | 0.0 | 0.00 | 0.02 | 0.02 | 95 | 1018.6 |
| 20260831025502 | 62 | 222 | 0.0 | 0.0 | 0.00 | 0.02 | 0.02 | 95 | 1018.6 |
| 20260831025423 | 62 | 222 | 0.0 | 0.0 | 0.00 | 0.02 | 0.02 | 94 | 1018.6 |
| 20260831025253 | 62 | 222 | 0.0 | 0.0 | 0.00 | 0.02 | 0.02 | 94 | 1018.7 |
| 20260831025208 | 62 | 222 | 0.0 | 0.0 | 0.00 | 0.02 | 0.02 | 94 | 1018.7 |
| 20260831025038 | 62 | 222 | 0.0 | 0.0 | 0.00 | 0.02 | 0.02 | 94 | 1018.7 |
| 20260831024938 | 62 | 222 | 0.0 | 0.0 | 0.00 | 0.02 | 0.02 | 94 | 1018.7 |
| 20260831024745 | 62 | 222 | 0.0 | 0.0 | 0.00 | 0.02 | 0.02 | 94 | 1018.7 |
| 20260831024706 | 62 | 222 | 0.0 | 0.0 | 0.00 | 0.02 | 0.02 | 94 | 1018.7 |
| 20260831024610 | 62 | 222 | 0.0 | 0.0 | 0.00 | 0.02 | 0.02 | 94 | 1018.7 |
| 20260831024532 | 62 | 222 | 0.0 | 0.0 | 0.00 | 0.02 | 0.02 | 94 | 1018.7 |
| 20260831024335 | 62 | 222 | 0.0 | 0.0 | 0.00 | 0.02 | 0.02 | 94 | 1018.7 |
| 20260831024237 | 62 | 222 | 0.0 | 0.0 | 0.00 | 0.02 | 0.02 | 94 | 1018.7 |
| 20260831024140 | 62 | 222 | 0.0 | 0.0 | 0.00 | 0.02 | 0.02 | 94 | 1018.7 |
| 20260831024041 | 62 | 222 | 0.0 | 0.0 | 0.00 | 0.02 | 0.02 | 95 | 1018.7 |
| 20260831023946 | 62 | 222 | 0.0 | 0.0 | 0.00 | 0.02 | 0.02 | 94 | 1018.6 |
| 20260831023829 | 62 | 222 | 0.0 | 0.0 | 0.00 | 0.02 | 0.02 | 94 | 1018.6 |
| 20260831023751 | 62 | 222 | 0.0 | 0.0 | 0.00 | 0.02 | 0.02 | 94 | 1018.7 |
| 20260831023654 | 62 | 222 | 0.0 | 0.0 | 0.00 | 0.02 | 0.02 | 94 | 1018.6 |
| 20260831023616 | 62 | 222 | 0.0 | 0.0 | 0.00 | 0.02 | 0.02 | 94 | 1018.6 |
| 20260831023446 | 62 | 222 | 0.0 | 0.0 | 0.00 | 0.02 | 0.02 | 94 | 1018.6 |
| 20260831023340 | 62 | 222 | 0.0 | 0.0 | 0.00 | 0.02 | 0.02 | 94 | 1018.6 |
| 20260831023129 | 62 | 222 | 0.0 | 0.0 | 0.00 | 0.02 | 0.02 | 94 | 1018.6 |
| 20260831023044 | 62 | 222 | 0.0 | 0.0 | 0.00 | 0.02 | 0.02 | 94 | 1018.7 |
| 20260831022853 | 62 | 222 | 0.0 | 0.0 | 0.00 | 0.02 | 0.02 | 94 | 1018.7 |
| 20260831022754 | 62 | 222 | 0.0 | 0.0 | 0.00 | 0.02 | 0.02 | 94 | 1018.6 |
| 20260831022638 | 62 | 222 | 0.0 | 0.0 | 0.00 | 0.02 | 0.02 | 94 | 1018.7 |
| 20260831022602 | 62 | 222 | 0.0 | 0.0 | 0.00 | 0.02 | 0.02 | 94 | 1018.6 |
| 20260831022504 | 62 | 222 | 0.0 | 0.0 | 0.00 | 0.02 | 0.02 | 94 | 1018.7 |
| 20260831022405 | 62 | 222 | 0.0 | 0.0 | 0.00 | 0.02 | 0.02 | 94 | 1018.7 |
| 20260831022326 | 62 | 222 | 0.0 | 0.0 | 0.00 | 0.02 | 0.02 | 94 | 1018.7 |
| 20260831022130 | 62 | 222 | 0.0 | 0.0 | 0.00 | 0.02 | 0.02 | 94 | 1018.6 |
| 20260831022032 | 62 | 222 | 0.0 | 0.0 | 0.00 | 0.02 | 0.02 | 94 | 1018.6 |
| 20260831021936 | 62 | 222 | 0.0 | 0.0 | 0.00 | 0.02 | 0.02 | 93 | 1018.6 |
| 20260831021857 | 62 | 222 | 0.0 | 0.0 | 0.00 | 0.02 | 0.02 | 93 | 1018.6 |
| 20260831021726 | 63 | 222 | 0.0 | 0.0 | 0.00 | 0.02 | 0.02 | 94 | 1018.6 |
| 20260831021620 | 63 | 222 | 0.0 | 0.0 | 0.00 | 0.02 | 0.02 | 94 | 1018.5 |
| 20260831021450 | 63 | 222 | 0.0 | 0.0 | 0.00 | 0.02 | 0.02 | 94 | 1018.5 |
| 20260831021416 | 63 | 222 | 0.0 | 0.0 | 0.00 | 0.02 | 0.02 | 94 | 1018.5 |
| 20260831021240 | 63 | 222 | 0.0 | 0.0 | 0.00 | 0.02 | 0.02 | 94 | 1018.5 |
| 20260831021140 | 63 | 222 | 0.0 | 0.0 | 0.00 | 0.02 | 0.02 | 94 | 1018.5 |
| 20260831021045 | 63 | 222 | 0.0 | 0.0 | 0.00 | 0.02 | 0.02 | 94 | 1018.5 |
| 20260831021007 | 63 | 222 | 0.0 | 0.0 | 0.00 | 0.02 | 0.02 | 94 | 1018.5 |
| 20260831020928 | 63 | 222 | 0.0 | 0.0 | 0.00 | 0.02 | 0.02 | 93 | 1018.5 |
| 20260831020800 | 63 | 222 | 0.0 | 0.0 | 0.00 | 0.02 | 0.02 | 93 | 1018.5 |
| 20260831020732 | 63 | 222 | 0.0 | 0.0 | 0.00 | 0.02 | 0.02 | 93 | 1018.5 |
| 20260831020602 | 63 | 222 | 0.0 | 0.0 | 0.00 | 0.02 | 0.02 | 93 | 1018.4 |
| 20260831020502 | 63 | 222 | 0.0 | 0.0 | 0.00 | 0.02 | 0.02 | 93 | 1018.4 |
| 20260831020324 | 63 | 222 | 0.0 | 0.0 | 0.00 | 0.02 | 0.02 | 93 | 1018.4 |
| 20260831020238 | 63 | 222 | 0.0 | 0.0 | 0.00 | 0.02 | 0.02 | 93 | 1018.4 |
| 20260831020120 | 63 | 222 | 0.0 | 0.0 | 0.00 | 0.02 | 0.02 | 93 | 1018.4 |
| 20260831020041 | 63 | 222 | 0.0 | 0.0 | 0.00 | 0.02 | 0.02 | 93 | 1018.4 |
| 20260831015911 | 63 | 222 | 0.0 | 0.0 | 0.00 | 0.02 | 0.02 | 93 | 1018.4 |
| 20260831015826 | 63 | 222 | 0.0 | 0.0 | 0.00 | 0.02 | 0.02 | 93 | 1018.4 |
| 20260831015636 | 63 | 222 | 0.0 | 0.0 | 0.00 | 0.02 | 0.02 | 93 | 1018.3 |
| 20260831015551 | 63 | 222 | 0.0 | 0.0 | 0.00 | 0.02 | 0.02 | 93 | 1018.3 |
| 20260831015420 | 63 | 222 | 0.0 | 0.0 | 0.00 | 0.02 | 0.02 | 93 | 1018.3 |
| 20260831015320 | 63 | 222 | 0.0 | 0.0 | 0.00 | 0.02 | 0.02 | 93 | 1018.3 |
| 20260831015123 | 63 | 222 | 0.0 | 0.0 | 0.00 | 0.02 | 0.02 | 93 | 1018.3 |
| 20260831015040 | 63 | 222 | 0.0 | 0.0 | 0.00 | 0.02 | 0.02 | 93 | 1018.3 |
| 20260831014849 | 63 | 222 | 0.0 | 0.0 | 0.00 | 0.02 | 0.02 | 93 | 1018.2 |
| 20260831014809 | 63 | 222 | 0.0 | 0.0 | 0.00 | 0.02 | 0.02 | 93 | 1018.2 |
| 20260831014618 | 63 | 222 | 0.0 | 0.0 | 0.00 | 0.02 | 0.02 | 93 | 1018.2 |
| 20260831014531 | 63 | 222 | 0.0 | 0.0 | 0.00 | 0.02 | 0.02 | 93 | 1018.2 |
| 20260831014310 | 63 | 222 | 0.0 | 0.0 | 0.00 | 0.02 | 0.02 | 93 | 1018.2 |
| 20260831014231 | 63 | 222 | 0.0 | 0.0 | 0.00 | 0.02 | 0.02 | 93 | 1018.2 |
| 20260831014036 | 63 | 222 | 0.0 | 0.0 | 0.00 | 0.02 | 0.02 | 94 | 1018.2 |
| 20260831013957 | 64 | 222 | 0.0 | 0.0 | 0.00 | 0.02 | 0.02 | 94 | 1018.2 |
| 20260831013901 | 64 | 222 | 0.0 | 0.0 | 0.00 | 0.02 | 0.02 | 94 | 1018.2 |
| 20260831013822 | 64 | 222 | 0.0 | 0.0 | 0.00 | 0.02 | 0.02 | 94 | 1018.2 |
| 20260831013629 | 64 | 222 | 0.0 | 0.0 | 0.00 | 0.02 | 0.02 | 94 | 1018.2 |
| 20260831013530 | 64 | 222 | 0.0 | 0.0 | 0.00 | 0.02 | 0.02 | 94 | 1018.2 |
| 20260831013442 | 64 | 222 | 0.0 | 0.0 | 0.00 | 0.02 | 0.02 | 94 | 1018.1 |
| 20260831013342 | 64 | 222 | 0.0 | 0.0 | 0.00 | 0.02 | 0.02 | 94 | 1018.1 |
| 20260831013212 | 64 | 222 | 0.0 | 0.0 | 0.00 | 0.02 | 0.02 | 94 | 1018.1 |
| 20260831013126 | 64 | 222 | 0.0 | 0.0 | 0.00 | 0.02 | 0.02 | 94 | 1018.1 |
| 20260831012955 | 64 | 222 | 0.0 | 0.0 | 0.00 | 0.02 | 0.02 | 94 | 1018.1 |
| 20260831012916 | 64 | 222 | 0.0 | 0.0 | 0.00 | 0.02 | 0.02 | 93 | 1018.1 |
| 20260831012747 | 64 | 222 | 0.0 | 0.0 | 0.00 | 0.02 | 0.02 | 93 | 1018.1 |
| 20260831012641 | 64 | 222 | 0.0 | 0.0 | 0.00 | 0.02 | 0.02 | 93 | 1018.1 |
| 20260831012530 | 64 | 222 | 0.0 | 0.0 | 0.00 | 0.02 | 0.02 | 93 | 1018.0 |
| 20260831012452 | 64 | 222 | 0.0 | 0.0 | 0.00 | 0.02 | 0.02 | 93 | 1018.0 |
| 20260831012414 | 64 | 222 | 0.0 | 0.0 | 0.00 | 0.02 | 0.02 | 93 | 1017.9 |
| 20260831012316 | 64 | 222 | 0.0 | 0.0 | 0.00 | 0.02 | 0.02 | 93 | 1017.9 |
| 20260831012236 | 64 | 222 | 0.0 | 0.0 | 0.00 | 0.02 | 0.02 | 93 | 1017.9 |
| 20260831012107 | 64 | 222 | 0.0 | 0.0 | 0.00 | 0.02 | 0.02 | 93 | 1017.9 |
| 20260831012021 | 64 | 222 | 0.0 | 0.0 | 0.00 | 0.02 | 0.02 | 93 | 1017.9 |
| 20260831011831 | 64 | 222 | 0.0 | 0.0 | 0.00 | 0.02 | 0.02 | 93 | 1017.9 |
| 20260831011744 | 64 | 222 | 0.0 | 0.0 | 0.00 | 0.02 | 0.02 | 93 | 1017.9 |
| 20260831011614 | 64 | 222 | 0.0 | 0.0 | 0.00 | 0.02 | 0.02 | 93 | 1017.8 |
| 20260831011535 | 64 | 222 | 0.0 | 0.0 | 0.00 | 0.02 | 0.02 | 94 | 1017.8 |
| 20260831011357 | 64 | 222 | 0.0 | 0.0 | 0.00 | 0.02 | 0.02 | 94 | 1017.7 |
| 20260831011323 | 64 | 222 | 0.0 | 0.0 | 0.00 | 0.02 | 0.02 | 94 | 1017.7 |
| 20260831011134 | 64 | 222 | 0.0 | 0.0 | 0.00 | 0.02 | 0.02 | 93 | 1017.7 |
| 20260831011027 | 64 | 222 | 0.0 | 0.0 | 0.00 | 0.02 | 0.02 | 93 | 1017.8 |
| 20260831010941 | 64 | 222 | 0.0 | 0.0 | 0.00 | 0.02 | 0.02 | 93 | 1017.7 |
| 20260831010902 | 64 | 222 | 0.0 | 0.0 | 0.00 | 0.02 | 0.02 | 93 | 1017.7 |
| 20260831010824 | 64 | 222 | 0.0 | 0.0 | 0.00 | 0.02 | 0.02 | 93 | 1017.7 |
| 20260831010628 | 64 | 222 | 0.0 | 0.0 | 0.00 | 0.02 | 0.02 | 93 | 1017.7 |
| 20260831010530 | 64 | 222 | 0.0 | 0.0 | 0.00 | 0.02 | 0.02 | 93 | 1017.7 |
| 20260831010433 | 64 | 222 | 0.0 | 0.0 | 0.00 | 0.02 | 0.02 | 93 | 1017.6 |
| 20260831010359 | 64 | 222 | 0.0 | 0.0 | 0.00 | 0.02 | 0.02 | 93 | 1017.6 |
| 20260831010320 | 64 | 222 | 0.0 | 0.0 | 0.00 | 0.02 | 0.02 | 93 | 1017.6 |
| 20260831010124 | 64 | 222 | 0.0 | 0.0 | 0.00 | 0.02 | 0.02 | 93 | 1017.6 |
| 20260831010040 | 64 | 222 | 0.0 | 0.0 | 0.00 | 0.02 | 0.02 | 93 | 1017.6 |
| 20260831005848 | 64 | 222 | 0.0 | 0.0 | 0.00 | 0.02 | 0.02 | 93 | 1017.6 |
| 20260831005748 | 64 | 222 | 0.0 | 0.0 | 0.00 | 0.02 | 0.02 | 93 | 1017.6 |
| 20260831005652 | 65 | 222 | 0.0 | 0.0 | 0.00 | 0.02 | 0.02 | 93 | 1017.6 |
| 20260831005615 | 65 | 222 | 0.0 | 0.0 | 0.00 | 0.02 | 0.02 | 93 | 1017.6 |
| 20260831005444 | 65 | 222 | 0.0 | 0.0 | 0.00 | 0.02 | 0.02 | 93 | 1017.6 |
| 20260831005349 | 65 | 222 | 0.0 | 0.0 | 0.00 | 0.02 | 0.02 | 93 | 1017.6 |
| 20260831005218 | 65 | 222 | 0.0 | 0.0 | 0.00 | 0.02 | 0.02 | 94 | 1017.6 |
| 20260831005144 | 65 | 222 | 0.0 | 0.0 | 0.00 | 0.02 | 0.02 | 94 | 1017.6 |
| 20260831005014 | 65 | 222 | 0.0 | 0.0 | 0.00 | 0.02 | 0.02 | 94 | 1017.6 |
| 20260831004927 | 65 | 222 | 0.0 | 0.0 | 0.00 | 0.02 | 0.02 | 94 | 1017.6 |
| 20260831004737 | 65 | 222 | 0.0 | 0.0 | 0.00 | 0.02 | 0.02 | 94 | 1017.5 |
| 20260831004632 | 65 | 222 | 0.0 | 0.0 | 0.00 | 0.02 | 0.02 | 94 | 1017.5 |
| 20260831004553 | 65 | 222 | 0.0 | 0.0 | 0.00 | 0.02 | 0.02 | 94 | 1017.5 |
| 20260831004456 | 65 | 222 | 0.0 | 0.0 | 0.00 | 0.02 | 0.02 | 93 | 1017.5 |
| 20260831004357 | 65 | 222 | 0.0 | 0.0 | 0.00 | 0.02 | 0.02 | 93 | 1017.5 |
| 20260831004319 | 65 | 222 | 0.0 | 0.0 | 0.00 | 0.02 | 0.02 | 93 | 1017.5 |
| 20260831004222 | 65 | 222 | 0.0 | 0.0 | 0.00 | 0.02 | 0.02 | 93 | 1017.5 |
| 20260831004123 | 65 | 222 | 0.0 | 0.0 | 0.00 | 0.02 | 0.02 | 93 | 1017.5 |
| 20260831003956 | 65 | 222 | 0.0 | 0.0 | 0.00 | 0.02 | 0.02 | 93 | 1017.5 |
| 20260831003912 | 65 | 222 | 0.0 | 0.0 | 0.00 | 0.02 | 0.02 | 93 | 1017.5 |
| 20260831003732 | 65 | 222 | 0.0 | 0.0 | 0.00 | 0.02 | 0.02 | 93 | 1017.5 |
| 20260831003632 | 65 | 222 | 0.0 | 0.0 | 0.00 | 0.02 | 0.02 | 93 | 1017.5 |
| 20260831003503 | 65 | 222 | 0.0 | 0.0 | 0.00 | 0.02 | 0.02 | 93 | 1017.5 |
| 20260831003346 | 65 | 222 | 0.0 | 0.0 | 0.00 | 0.02 | 0.02 | 93 | 1017.5 |
| 20260831003307 | 65 | 222 | 0.0 | 0.0 | 0.00 | 0.02 | 0.02 | 93 | 1017.5 |
| 20260831003137 | 65 | 222 | 0.0 | 0.0 | 0.00 | 0.02 | 0.02 | 93 | 1017.5 |
| 20260831003030 | 65 | 222 | 0.0 | 0.0 | 0.00 | 0.02 | 0.02 | 93 | 1017.5 |
| 20260831002840 | 65 | 222 | 0.0 | 0.0 | 0.00 | 0.02 | 0.02 | 93 | 1017.5 |
| 20260831002736 | 65 | 222 | 0.0 | 0.0 | 0.00 | 0.02 | 0.02 | 93 | 1017.5 |
| 20260831002625 | 65 | 222 | 0.0 | 0.0 | 0.00 | 0.02 | 0.02 | 93 | 1017.4 |
| 20260831002526 | 65 | 222 | 0.0 | 0.0 | 0.00 | 0.02 | 0.02 | 93 | 1017.4 |
| 20260831002420 | 65 | 222 | 0.0 | 0.0 | 0.00 | 0.02 | 0.02 | 93 | 1017.4 |
| 20260831002325 | 65 | 222 | 0.0 | 0.0 | 0.00 | 0.02 | 0.02 | 93 | 1017.4 |
| 20260831002226 | 65 | 222 | 0.0 | 0.0 | 0.00 | 0.02 | 0.02 | 93 | 1017.4 |
| 20260831002131 | 65 | 222 | 0.0 | 0.0 | 0.00 | 0.02 | 0.02 | 93 | 1017.3 |
| 20260831002032 | 65 | 222 | 0.0 | 0.0 | 0.00 | 0.02 | 0.02 | 93 | 1017.3 |
| 20260831001840 | 65 | 222 | 0.0 | 0.0 | 0.00 | 0.02 | 0.02 | 93 | 1017.3 |
| 20260831001741 | 65 | 222 | 0.0 | 0.0 | 0.00 | 0.02 | 0.02 | 93 | 1017.3 |
| 20260831001625 | 65 | 222 | 0.0 | 0.0 | 0.00 | 0.02 | 0.02 | 93 | 1017.2 |
| 20260831001547 | 65 | 222 | 0.0 | 0.0 | 0.00 | 0.02 | 0.02 | 93 | 1017.2 |
| 20260831001430 | 65 | 222 | 0.0 | 0.0 | 0.00 | 0.02 | 0.02 | 93 | 1017.2 |
| 20260831001330 | 65 | 222 | 0.0 | 0.0 | 0.00 | 0.02 | 0.02 | 93 | 1017.2 |
| 20260831001134 | 65 | 222 | 0.0 | 0.0 | 0.00 | 0.02 | 0.02 | 93 | 1017.1 |
| 20260831001035 | 65 | 222 | 0.0 | 0.0 | 0.00 | 0.02 | 0.02 | 93 | 1017.1 |
| 20260831000922 | 65 | 222 | 0.0 | 0.0 | 0.00 | 0.02 | 0.02 | 93 | 1017.1 |
| 20260831000853 | 65 | 222 | 0.0 | 0.0 | 0.00 | 0.02 | 0.02 | 93 | 1017.0 |
| 20260831000754 | 65 | 222 | 0.0 | 0.0 | 0.00 | 0.02 | 0.02 | 93 | 1017.0 |
| 20260831000657 | 65 | 222 | 0.0 | 0.0 | 0.00 | 0.02 | 0.02 | 93 | 1017.0 |
| 20260831000619 | 65 | 222 | 0.0 | 0.0 | 0.00 | 0.02 | 0.02 | 93 | 1017.0 |
| 20260831000425 | 65 | 222 | 0.0 | 0.0 | 0.00 | 0.02 | 0.02 | 93 | 1017.0 |
| 20260831000325 | 65 | 222 | 0.0 | 0.0 | 0.00 | 0.02 | 0.02 | 93 | 1017.0 |
| 20260831000229 | 65 | 222 | 0.0 | 0.0 | 0.00 | 0.02 | 0.02 | 93 | 1017.0 |
| 20260831000150 | 65 | 222 | 0.0 | 0.0 | 0.00 | 0.02 | 0.02 | 93 | 1016.9 |
| 20260831000051 | 65 | 222 | 0.0 | 0.0 | 0.00 | 0.02 | 0.02 | 93 | 1016.9 |
| 20260830235952 | 65 | 222 | 0.0 | 0.0 | 0.00 | 0.02 | 0.02 | 93 | 1016.9 |
| 20260830235855 | 65 | 222 | 0.0 | 0.0 | 0.00 | 0.02 | 0.02 | 93 | 1016.9 |
| 20260830235817 | 65 | 222 | 0.0 | 0.0 | 0.00 | 0.02 | 0.02 | 93 | 1016.9 |
| 20260830235659 | 65 | 222 | 0.0 | 0.0 | 0.00 | 0.02 | 0.02 | 93 | 1016.9 |
| 20260830235621 | 65 | 222 | 0.0 | 0.0 | 0.00 | 0.02 | 0.02 | 93 | 1016.9 |
| 20260830235449 | 65 | 222 | 0.0 | 0.0 | 0.00 | 0.02 | 0.02 | 93 | 1016.8 |
| 20260830235324 | 66 | 222 | 0.0 | 0.0 | 0.00 | 0.02 | 0.02 | 93 | 1016.8 |
| 20260830235228 | 66 | 222 | 0.0 | 0.0 | 0.00 | 0.02 | 0.02 | 93 | 1016.9 |
| 20260830235148 | 66 | 222 | 0.0 | 0.0 | 0.00 | 0.02 | 0.02 | 93 | 1016.9 |
| 20260830235019 | 66 | 222 | 0.0 | 0.0 | 0.00 | 0.02 | 0.02 | 92 | 1016.8 |
| 20260830234912 | 66 | 222 | 0.0 | 0.0 | 0.00 | 0.02 | 0.02 | 93 | 1016.7 |
| 20260830234752 | 66 | 222 | 0.0 | 0.0 | 0.00 | 0.02 | 0.02 | 92 | 1016.7 |
| 20260830234718 | 66 | 222 | 0.0 | 0.0 | 0.00 | 0.02 | 0.02 | 92 | 1016.7 |
| 20260830234548 | 66 | 222 | 0.0 | 0.0 | 0.00 | 0.02 | 0.02 | 93 | 1016.7 |
| 20260830234424 | 66 | 222 | 0.0 | 0.0 | 0.00 | 0.02 | 0.02 | 93 | 1016.7 |
| 20260830234327 | 66 | 222 | 0.0 | 0.0 | 0.00 | 0.02 | 0.02 | 93 | 1016.6 |
| 20260830234247 | 66 | 222 | 0.0 | 0.0 | 0.00 | 0.02 | 0.02 | 93 | 1016.6 |
| 20260830234147 | 66 | 222 | 0.0 | 0.0 | 0.00 | 0.02 | 0.02 | 93 | 1016.6 |
| 20260830234052 | 66 | 222 | 0.0 | 0.0 | 0.00 | 0.02 | 0.02 | 93 | 1016.7 |
| 20260830233932 | 66 | 222 | 0.0 | 0.0 | 0.00 | 0.02 | 0.02 | 93 | 1016.6 |
| 20260830233836 | 66 | 222 | 0.0 | 0.0 | 0.00 | 0.02 | 0.02 | 93 | 1016.6 |
| 20260830233735 | 66 | 222 | 0.0 | 0.0 | 0.00 | 0.02 | 0.02 | 93 | 1016.6 |
| 20260830233608 | 66 | 222 | 0.0 | 0.0 | 0.00 | 0.02 | 0.02 | 92 | 1016.6 |
| 20260830233524 | 66 | 222 | 0.0 | 0.0 | 0.00 | 0.02 | 0.02 | 92 | 1016.6 |
| 20260830233354 | 66 | 222 | 0.0 | 0.0 | 0.00 | 0.02 | 0.02 | 92 | 1016.7 |
| 20260830233315 | 66 | 222 | 0.0 | 0.0 | 0.00 | 0.02 | 0.02 | 92 | 1016.6 |
| 20260830233230 | 66 | 222 | 0.0 | 0.0 | 0.00 | 0.02 | 0.02 | 92 | 1016.6 |
| 20260830233100 | 66 | 222 | 0.0 | 0.0 | 0.00 | 0.02 | 0.02 | 92 | 1016.6 |
| 20260830233021 | 66 | 222 | 0.0 | 0.0 | 0.00 | 0.02 | 0.02 | 92 | 1016.6 |
| 20260830232842 | 66 | 222 | 0.0 | 0.0 | 0.00 | 0.02 | 0.02 | 92 | 1016.5 |
| 20260830232743 | 66 | 222 | 0.0 | 0.0 | 0.00 | 0.02 | 0.02 | 92 | 1016.5 |
| 20260830232627 | 66 | 222 | 0.0 | 0.0 | 0.00 | 0.02 | 0.02 | 92 | 1016.5 |
| 20260830232548 | 66 | 138 | 0.0 | 0.0 | 0.00 | 0.02 | 0.02 | 92 | 1016.5 |
| 20260830232513 | 66 | 138 | 0.0 | 0.0 | 0.00 | 0.02 | 0.02 | 92 | 1016.4 |
| 20260830232418 | 66 | 138 | 0.0 | 0.0 | 0.01 | 0.02 | 0.02 | 92 | 1016.5 |
| 20260830232340 | 66 | 138 | 0.0 | 0.0 | 0.01 | 0.02 | 0.02 | 92 | 1016.5 |
| 20260830232210 | 66 | 138 | 0.0 | 0.0 | 0.01 | 0.02 | 0.02 | 92 | 1016.4 |
| 20260830232125 | 66 | 138 | 0.0 | 0.0 | 0.01 | 0.02 | 0.02 | 92 | 1016.4 |
| 20260830231955 | 66 | 138 | 0.0 | 0.0 | 0.01 | 0.02 | 0.02 | 92 | 1016.5 |
| 20260830231917 | 66 | 138 | 0.0 | 0.0 | 0.01 | 0.02 | 0.02 | 92 | 1016.5 |
| 20260830231740 | 66 | 175 | 0.0 | 0.0 | 0.01 | 0.02 | 0.02 | 92 | 1016.6 |
| 20260830231641 | 66 | 175 | 0.0 | 0.0 | 0.01 | 0.02 | 0.02 | 92 | 1016.6 |
| 20260830231546 | 66 | 175 | 0.0 | 0.0 | 0.01 | 0.02 | 0.02 | 92 | 1016.6 |
| 20260830231425 | 66 | 175 | 0.0 | 0.0 | 0.01 | 0.02 | 0.02 | 92 | 1016.7 |
| 20260830231333 | 66 | 175 | 0.0 | 0.0 | 0.01 | 0.02 | 0.02 | 92 | 1016.6 |
| 20260830231254 | 66 | 175 | 0.0 | 0.0 | 0.01 | 0.02 | 0.02 | 92 | 1016.7 |
| 20260830231103 | 66 | 175 | 0.0 | 0.0 | 0.01 | 0.02 | 0.02 | 92 | 1016.6 |
| 20260830230915 | 66 | 175 | 0.0 | 1.7 | 0.01 | 0.02 | 0.02 | 92 | 1016.6 |
| 20260830230831 | 66 | 175 | 0.0 | 1.7 | 0.01 | 0.02 | 0.02 | 92 | 1016.6 |
| 20260830230731 | 66 | 175 | 0.0 | 1.7 | 0.01 | 0.02 | 0.02 | 92 | 1016.6 |
| 20260830230514 | 66 | 175 | 0.0 | 1.7 | 0.01 | 0.02 | 0.02 | 92 | 1016.7 |
| 20260830230443 | 66 | 175 | 0.0 | 1.7 | 0.01 | 0.02 | 0.02 | 92 | 1016.6 |
| 20260830230347 | 66 | 175 | 0.0 | 1.7 | 0.01 | 0.02 | 0.02 | 92 | 1016.6 |
| 20260830230230 | 66 | 175 | 0.0 | 1.7 | 0.01 | 0.02 | 0.02 | 92 | 1016.6 |
| 20260830230151 | 67 | 175 | 0.9 | 1.7 | 0.01 | 0.02 | 0.02 | 92 | 1016.5 |
| 20260830230056 | 67 | 175 | 0.9 | 1.7 | 0.01 | 0.02 | 0.02 | 92 | 1016.6 |
| 20260830225956 | 66 | 175 | 0.9 | 1.7 | 0.01 | 0.02 | 0.02 | 92 | 1016.5 |
| 20260830225927 | 67 | 175 | 0.0 | 1.7 | 0.01 | 0.02 | 0.02 | 92 | 1016.5 |
| 20260830225729 | 67 | 138 | 0.0 | 0.0 | 0.01 | 0.02 | 0.02 | 92 | 1016.6 |
| 20260830225651 | 67 | 138 | 0.0 | 0.0 | 0.01 | 0.02 | 0.02 | 92 | 1016.6 |
| 20260830225554 | 67 | 138 | 0.0 | 0.0 | 0.01 | 0.02 | 0.02 | 92 | 1016.6 |
| 20260830225517 | 67 | 138 | 0.0 | 0.0 | 0.01 | 0.02 | 0.02 | 92 | 1016.7 |
| 20260830225346 | 67 | 138 | 0.0 | 0.0 | 0.01 | 0.02 | 0.02 | 92 | 1016.7 |
| 20260830225305 | 67 | 138 | 0.0 | 0.0 | 0.01 | 0.02 | 0.02 | 92 | 1016.7 |
| 20260830225114 | 67 | 138 | 0.0 | 0.0 | 0.01 | 0.02 | 0.02 | 92 | 1016.7 |
| 20260830225037 | 67 | 138 | 0.0 | 0.0 | 0.01 | 0.02 | 0.02 | 92 | 1016.7 |
| 20260830224837 | 67 | 138 | 0.0 | 0.0 | 0.01 | 0.02 | 0.02 | 92 | 1016.7 |
| 20260830224739 | 67 | 138 | 0.0 | 0.0 | 0.01 | 0.02 | 0.02 | 92 | 1016.7 |
| 20260830224625 | 67 | 138 | 0.0 | 0.0 | 0.01 | 0.02 | 0.02 | 92 | 1016.6 |
| 20260830224547 | 67 | 138 | 0.0 | 0.0 | 0.01 | 0.02 | 0.02 | 92 | 1016.6 |
| 20260830224509 | 67 | 138 | 0.0 | 0.0 | 0.01 | 0.02 | 0.02 | 92 | 1016.6 |
| 20260830224413 | 67 | 138 | 0.0 | 0.0 | 0.01 | 0.02 | 0.02 | 92 | 1016.6 |
| 20260830224312 | 67 | 138 | 0.0 | 0.0 | 0.01 | 0.02 | 0.02 | 92 | 1016.6 |
| 20260830224212 | 67 | 138 | 0.0 | 0.0 | 0.01 | 0.02 | 0.02 | 92 | 1016.6 |
| 20260830224116 | 67 | 138 | 0.0 | 0.0 | 0.01 | 0.02 | 0.02 | 92 | 1016.6 |
| 20260830224041 | 67 | 138 | 0.0 | 0.0 | 0.01 | 0.02 | 0.02 | 92 | 1016.6 |
| 20260830223911 | 67 | 138 | 0.0 | 0.0 | 0.01 | 0.02 | 0.02 | 92 | 1016.6 |
| 20260830223835 | 67 | 138 | 0.0 | 0.0 | 0.01 | 0.02 | 0.02 | 92 | 1016.6 |
| 20260830223705 | 67 | 138 | 0.0 | 0.0 | 0.01 | 0.02 | 0.02 | 92 | 1016.7 |
| 20260830223626 | 67 | 138 | 0.0 | 0.0 | 0.01 | 0.02 | 0.02 | 91 | 1016.7 |
| 20260830223430 | 67 | 138 | 0.0 | 0.0 | 0.01 | 0.02 | 0.02 | 91 | 1016.7 |
| 20260830223351 | 67 | 138 | 0.0 | 0.0 | 0.01 | 0.02 | 0.02 | 91 | 1016.7 |
| 20260830223234 | 67 | 138 | 0.0 | 0.0 | 0.01 | 0.02 | 0.02 | 91 | 1016.7 |
| 20260830223156 | 67 | 138 | 0.0 | 0.0 | 0.01 | 0.02 | 0.02 | 91 | 1016.7 |
| 20260830222922 | 67 | 138 | 0.0 | 0.0 | 0.01 | 0.02 | 0.02 | 91 | 1016.7 |
| 20260830222846 | 67 | 138 | 0.0 | 0.0 | 0.01 | 0.02 | 0.02 | 91 | 1016.7 |
| 20260830222748 | 67 | 138 | 0.0 | 0.0 | 0.01 | 0.02 | 0.02 | 91 | 1016.7 |
| 20260830222711 | 67 | 138 | 0.0 | 0.0 | 0.01 | 0.02 | 0.02 | 91 | 1016.8 |
| 20260830222449 | 67 | 138 | 0.0 | 0.0 | 0.00 | 0.01 | 0.01 | 91 | 1016.7 |
| 20260830222405 | 67 | 138 | 0.0 | 0.0 | 0.00 | 0.01 | 0.01 | 92 | 1016.7 |
| 20260830222203 | 67 | 138 | 0.0 | 0.0 | 0.00 | 0.01 | 0.01 | 91 | 1016.7 |
| 20260830222038 | 67 | 138 | 0.0 | 0.0 | 0.00 | 0.01 | 0.01 | 91 | 1016.7 |
| 20260830221959 | 67 | 138 | 0.0 | 0.0 | 0.00 | 0.01 | 0.01 | 91 | 1016.7 |
| 20260830221833 | 67 | 138 | 0.0 | 0.0 | 0.00 | 0.01 | 0.01 | 91 | 1016.7 |
| 20260830221737 | 67 | 138 | 0.0 | 0.0 | 0.00 | 0.01 | 0.01 | 91 | 1016.7 |
| 20260830221701 | 67 | 138 | 0.0 | 0.0 | 0.00 | 0.01 | 0.01 | 91 | 1016.7 |
| 20260830221632 | 67 | 138 | 0.0 | 0.0 | 0.00 | 0.01 | 0.01 | 91 | 1016.7 |
| 20260830221501 | 67 | 138 | 0.0 | 0.0 | 0.00 | 0.01 | 0.01 | 91 | 1016.7 |
| 20260830221417 | 67 | 180 | 0.0 | 0.0 | 0.00 | 0.01 | 0.01 | 91 | 1016.7 |
| 20260830221228 | 67 | 180 | 0.0 | 0.0 | 0.00 | 0.01 | 0.01 | 91 | 1016.6 |
| 20260830221144 | 67 | 180 | 0.0 | 0.0 | 0.00 | 0.01 | 0.01 | 91 | 1016.6 |
| 20260830220932 | 67 | 180 | 0.0 | 0.0 | 0.00 | 0.01 | 0.01 | 92 | 1016.7 |
| 20260830220848 | 67 | 180 | 0.0 | 0.0 | 0.00 | 0.01 | 0.01 | 91 | 1016.7 |
| 20260830220716 | 67 | 180 | 0.0 | 0.0 | 0.00 | 0.01 | 0.01 | 91 | 1016.7 |
| 20260830220638 | 67 | 180 | 0.0 | 0.0 | 0.00 | 0.01 | 0.01 | 91 | 1016.7 |
| 20260830220511 | 67 | 180 | 0.0 | 0.0 | 0.00 | 0.01 | 0.01 | 91 | 1016.6 |
| 20260830220433 | 67 | 180 | 0.0 | 0.0 | 0.00 | 0.01 | 0.01 | 91 | 1016.6 |
| 20260830220244 | 67 | 180 | 0.0 | 0.0 | 0.00 | 0.01 | 0.01 | 91 | 1016.7 |
| 20260830220137 | 67 | 180 | 0.0 | 0.0 | 0.00 | 0.01 | 0.01 | 91 | 1016.7 |
| 20260830220021 | 67 | 180 | 0.0 | 0.0 | 0.00 | 0.01 | 0.01 | 91 | 1016.6 |
| 20260830215944 | 67 | 180 | 0.0 | 0.0 | 0.00 | 0.01 | 0.01 | 91 | 1016.6 |
| 20260830215905 | 67 | 180 | 0.0 | 0.0 | 0.00 | 0.01 | 0.01 | 91 | 1016.6 |
| 20260830215809 | 67 | 180 | 0.0 | 0.0 | 0.00 | 0.01 | 0.01 | 91 | 1016.5 |
| 20260830215730 | 67 | 180 | 0.0 | 0.0 | 0.00 | 0.01 | 0.01 | 91 | 1016.5 |
| 20260830215537 | 67 | 180 | 0.0 | 0.0 | 0.00 | 0.01 | 0.01 | 91 | 1016.5 |
| 20260830215439 | 67 | 180 | 0.0 | 0.0 | 0.00 | 0.01 | 0.01 | 91 | 1016.5 |
| 20260830215342 | 67 | 180 | 0.0 | 0.0 | 0.00 | 0.01 | 0.01 | 90 | 1016.5 |
| 20260830215242 | 67 | 189 | 0.0 | 0.0 | 0.00 | 0.01 | 0.01 | 90 | 1016.5 |
| 20260830215113 | 67 | 309 | 0.0 | 0.0 | 0.00 | 0.01 | 0.01 | 90 | 1016.6 |
| 20260830215028 | 67 | 309 | 0.0 | 0.0 | 0.00 | 0.01 | 0.01 | 90 | 1016.6 |
| 20260830214837 | 67 | 309 | 0.0 | 0.0 | 0.00 | 0.01 | 0.01 | 90 | 1016.6 |
| 20260830214751 | 68 | 309 | 0.0 | 0.0 | 0.00 | 0.01 | 0.01 | 90 | 1016.6 |
| 20260830214620 | 68 | 309 | 0.0 | 0.0 | 0.00 | 0.01 | 0.01 | 90 | 1016.6 |
| 20260830214542 | 68 | 309 | 0.0 | 0.0 | 0.00 | 0.01 | 0.01 | 90 | 1016.6 |
| 20260830214415 | 68 | 309 | 0.0 | 0.0 | 0.00 | 0.01 | 0.01 | 90 | 1016.6 |
| 20260830214332 | 68 | 309 | 0.0 | 0.0 | 0.00 | 0.01 | 0.01 | 90 | 1016.6 |
| 20260830214142 | 68 | 309 | 0.0 | 0.0 | 0.00 | 0.01 | 0.01 | 89 | 1016.5 |
| 20260830214037 | 68 | 309 | 0.0 | 0.0 | 0.00 | 0.01 | 0.01 | 89 | 1016.4 |
| 20260830213959 | 68 | 309 | 0.0 | 0.0 | 0.00 | 0.01 | 0.01 | 89 | 1016.4 |
| 20260830213824 | 68 | 309 | 0.0 | 0.0 | 0.00 | 0.01 | 0.01 | 89 | 1016.5 |
| 20260830213739 | 68 | 309 | 0.0 | 0.0 | 0.00 | 0.01 | 0.01 | 89 | 1016.5 |
| 20260830213640 | 68 | 309 | 0.0 | 0.0 | 0.00 | 0.01 | 0.01 | 89 | 1016.5 |
| 20260830213545 | 68 | 309 | 0.0 | 0.0 | 0.00 | 0.01 | 0.01 | 89 | 1016.4 |
| 20260830213510 | 68 | 309 | 0.0 | 0.0 | 0.00 | 0.01 | 0.01 | 89 | 1016.4 |
| 20260830213319 | 68 | 309 | 0.0 | 0.0 | 0.00 | 0.01 | 0.01 | 89 | 1016.4 |
| 20260830213233 | 68 | 309 | 0.0 | 0.0 | 0.00 | 0.01 | 0.01 | 89 | 1016.4 |
| 20260830213103 | 68 | 304 | 0.0 | 0.0 | 0.00 | 0.01 | 0.01 | 89 | 1016.4 |
| 20260830213025 | 68 | 279 | 0.0 | 0.0 | 0.00 | 0.01 | 0.01 | 88 | 1016.4 |
| 20260830212857 | 68 | 279 | 0.0 | 0.0 | 0.00 | 0.01 | 0.01 | 88 | 1016.3 |
| 20260830212729 | 68 | 279 | 0.0 | 0.0 | 0.00 | 0.01 | 0.01 | 88 | 1016.3 |
| 20260830212652 | 68 | 279 | 0.0 | 0.0 | 0.00 | 0.01 | 0.01 | 88 | 1016.3 |
| 20260830212555 | 68 | 279 | 0.0 | 0.0 | 0.00 | 0.01 | 0.01 | 88 | 1016.2 |
| 20260830212518 | 68 | 279 | 0.0 | 0.0 | 0.00 | 0.01 | 0.01 | 88 | 1016.2 |
| 20260830212347 | 68 | 279 | 0.0 | 0.0 | 0.00 | 0.01 | 0.01 | 88 | 1016.2 |
| 20260830212245 | 68 | 279 | 0.0 | 0.0 | 0.00 | 0.01 | 0.01 | 87 | 1016.1 |
| 20260830212207 | 68 | 279 | 0.0 | 0.0 | 0.00 | 0.01 | 0.01 | 87 | 1016.1 |
| 20260830212111 | 68 | 279 | 0.0 | 0.0 | 0.00 | 0.01 | 0.01 | 87 | 1016.1 |
| 20260830212032 | 68 | 286 | 0.0 | 0.0 | 0.00 | 0.01 | 0.01 | 87 | 1016.1 |
| 20260830211903 | 68 | 286 | 0.0 | 0.0 | 0.00 | 0.01 | 0.01 | 86 | 1016.2 |
| 20260830211818 | 68 | 286 | 0.0 | 0.0 | 0.00 | 0.01 | 0.01 | 86 | 1016.1 |
| 20260830211628 | 68 | 286 | 0.0 | 0.0 | 0.00 | 0.01 | 0.01 | 87 | 1016.2 |
| 20260830211543 | 68 | 277 | 0.0 | 0.0 | 0.00 | 0.01 | 0.01 | 86 | 1016.1 |
| 20260830211332 | 69 | 275 | 0.0 | 0.0 | 0.00 | 0.01 | 0.01 | 86 | 1016.1 |
| 20260830211245 | 69 | 273 | 0.0 | 0.0 | 0.00 | 0.01 | 0.01 | 86 | 1016.1 |
| 20260830211114 | 69 | 271 | 0.0 | 0.0 | 0.00 | 0.01 | 0.01 | 87 | 1016.1 |
| 20260830211020 | 69 | 271 | 0.0 | 0.0 | 0.00 | 0.01 | 0.01 | 87 | 1016.1 |
| 20260830210850 | 69 | 271 | 0.0 | 0.0 | 0.00 | 0.01 | 0.01 | 86 | 1016.0 |
| 20260830210724 | 69 | 290 | 0.0 | 0.0 | 0.00 | 0.01 | 0.01 | 86 | 1016.0 |
| 20260830210644 | 69 | 290 | 0.0 | 0.0 | 0.00 | 0.01 | 0.01 | 86 | 1016.0 |
| 20260830210548 | 69 | 290 | 0.0 | 0.0 | 0.00 | 0.01 | 0.01 | 86 | 1016.0 |
| 20260830210509 | 69 | 290 | 0.0 | 0.0 | 0.00 | 0.01 | 0.01 | 86 | 1016.0 |
| 20260830210431 | 69 | 290 | 0.0 | 0.0 | 0.00 | 0.01 | 0.01 | 87 | 1016.1 |
| 20260830210314 | 69 | 290 | 0.0 | 0.0 | 0.00 | 0.01 | 0.01 | 86 | 1016.1 |
| 20260830210236 | 69 | 290 | 0.0 | 0.0 | 0.00 | 0.01 | 0.01 | 86 | 1016.1 |
| 20260830210106 | 69 | 290 | 0.0 | 0.0 | 0.00 | 0.01 | 0.01 | 86 | 1016.2 |
| 20260830210022 | 69 | 290 | 0.0 | 0.0 | 0.00 | 0.01 | 0.01 | 86 | 1016.2 |
| 20260830205851 | 69 | 290 | 0.0 | 0.0 | 0.00 | 0.01 | 0.01 | 86 | 1016.2 |
| 20260830205817 | 69 | 290 | 0.0 | 0.0 | 0.00 | 0.01 | 0.01 | 86 | 1016.3 |
| 20260830205640 | 69 | 290 | 0.0 | 0.0 | 0.00 | 0.01 | 0.01 | 85 | 1016.2 |
| 20260830205540 | 69 | 290 | 0.0 | 0.0 | 0.00 | 0.01 | 0.01 | 85 | 1016.2 |
| 20260830205443 | 69 | 290 | 0.0 | 0.0 | 0.00 | 0.01 | 0.01 | 85 | 1016.2 |
| 20260830205342 | 69 | 290 | 0.0 | 0.0 | 0.00 | 0.01 | 0.01 | 85 | 1016.3 |
| 20260830205306 | 69 | 290 | 0.0 | 0.0 | 0.00 | 0.01 | 0.01 | 85 | 1016.2 |
| 20260830205208 | 69 | 290 | 0.0 | 0.0 | 0.00 | 0.01 | 0.01 | 85 | 1016.3 |
| 20260830205129 | 69 | 290 | 0.0 | 0.0 | 0.00 | 0.01 | 0.01 | 85 | 1016.3 |
| 20260830204932 | 69 | 290 | 0.0 | 0.0 | 0.00 | 0.01 | 0.01 | 85 | 1016.4 |
| 20260830204838 | 69 | 290 | 0.0 | 0.0 | 0.00 | 0.01 | 0.01 | 84 | 1016.3 |
| 20260830204740 | 69 | 290 | 0.0 | 0.0 | 0.00 | 0.01 | 0.01 | 84 | 1016.2 |
| 20260830204640 | 69 | 290 | 0.0 | 0.0 | 0.00 | 0.01 | 0.01 | 83 | 1016.2 |
| 20260830204508 | 69 | 290 | 0.0 | 0.9 | 0.00 | 0.01 | 0.01 | 83 | 1016.2 |
| 20260830204401 | 69 | 290 | 0.0 | 0.9 | 0.00 | 0.01 | 0.01 | 83 | 1016.2 |
| 20260830204207 | 69 | 290 | 0.0 | 0.9 | 0.00 | 0.01 | 0.01 | 83 | 1016.3 |
| 20260830204129 | 69 | 290 | 0.0 | 0.9 | 0.00 | 0.01 | 0.01 | 83 | 1016.3 |
| 20260830203932 | 69 | 290 | 0.0 | 0.9 | 0.00 | 0.01 | 0.01 | 83 | 1016.3 |
| 20260830203853 | 69 | 290 | 0.0 | 0.9 | 0.00 | 0.01 | 0.01 | 83 | 1016.3 |
| 20260830203757 | 69 | 290 | 0.0 | 0.9 | 0.00 | 0.01 | 0.01 | 83 | 1016.3 |
| 20260830203720 | 69 | 290 | 0.0 | 0.9 | 0.00 | 0.01 | 0.01 | 83 | 1016.3 |
| 20260830203527 | 69 | 150 | 0.0 | 0.9 | 0.00 | 0.01 | 0.01 | 84 | 1016.3 |
| 20260830203448 | 69 | 149 | 0.0 | 0.9 | 0.00 | 0.01 | 0.01 | 84 | 1016.3 |
| 20260830203349 | 69 | 149 | 0.0 | 1.7 | 0.00 | 0.01 | 0.01 | 84 | 1016.2 |
| 20260830203224 | 69 | 169 | 0.0 | 1.7 | 0.00 | 0.01 | 0.01 | 82 | 1016.3 |
| 20260830203128 | 69 | 169 | 0.0 | 1.7 | 0.00 | 0.01 | 0.01 | 83 | 1016.2 |
| 20260830203048 | 69 | 169 | 0.0 | 1.7 | 0.00 | 0.01 | 0.01 | 83 | 1016.3 |
| 20260830203009 | 69 | 169 | 0.0 | 1.7 | 0.00 | 0.01 | 0.01 | 83 | 1016.3 |
| 20260830202913 | 69 | 169 | 0.0 | 1.7 | 0.00 | 0.01 | 0.01 | 83 | 1016.4 |
| 20260830202815 | 69 | 169 | 0.0 | 1.7 | 0.00 | 0.01 | 0.01 | 83 | 1016.4 |
| 20260830202644 | 69 | 169 | 0.0 | 1.7 | 0.00 | 0.01 | 0.01 | 83 | 1016.4 |
| 20260830202524 | 69 | 169 | 0.0 | 2.6 | 0.00 | 0.01 | 0.01 | 84 | 1016.4 |
| 20260830202445 | 69 | 169 | 0.0 | 2.6 | 0.00 | 0.01 | 0.01 | 83 | 1016.4 |
| 20260830202410 | 69 | 169 | 0.0 | 2.6 | 0.00 | 0.01 | 0.01 | 83 | 1016.3 |
| 20260830202343 | 69 | 170 | 0.0 | 2.6 | 0.00 | 0.01 | 0.01 | 83 | 1016.3 |
| 20260830202125 | 69 | 171 | 0.0 | 3.5 | 0.00 | 0.01 | 0.01 | 84 | 1016.2 |
| 20260830202026 | 69 | 171 | 0.0 | 3.5 | 0.00 | 0.01 | 0.01 | 84 | 1016.2 |
| 20260830201929 | 69 | 171 | 0.0 | 3.5 | 0.00 | 0.01 | 0.01 | 84 | 1016.2 |
| 20260830201849 | 69 | 171 | 0.9 | 3.5 | 0.00 | 0.01 | 0.01 | 83 | 1016.3 |
| 20260830201811 | 69 | 171 | 0.9 | 3.5 | 0.00 | 0.01 | 0.01 | 83 | 1016.2 |
| 20260830201714 | 69 | 172 | 1.7 | 3.5 | 0.00 | 0.01 | 0.01 | 84 | 1016.2 |
| 20260830201640 | 69 | 158 | 1.7 | 3.5 | 0.00 | 0.01 | 0.01 | 84 | 1016.3 |
| 20260830201424 | 69 | 201 | 0.9 | 3.5 | 0.00 | 0.01 | 0.01 | 84 | 1016.4 |
| 20260830201325 | 69 | 188 | 0.9 | 3.5 | 0.00 | 0.01 | 0.01 | 84 | 1016.4 |
| 20260830201230 | 69 | 213 | 0.9 | 3.5 | 0.01 | 0.01 | 0.01 | 83 | 1016.4 |
| 20260830201131 | 69 | 213 | 0.9 | 3.5 | 0.01 | 0.01 | 0.01 | 83 | 1016.4 |
| 20260830201010 | 69 | 229 | 0.9 | 3.5 | 0.01 | 0.01 | 0.01 | 84 | 1016.4 |
| 20260830200925 | 69 | 229 | 1.7 | 3.5 | 0.01 | 0.01 | 0.01 | 84 | 1016.4 |
| 20260830200745 | 69 | 184 | 1.7 | 4.3 | 0.01 | 0.01 | 0.01 | 84 | 1016.4 |
| 20260830200647 | 69 | 180 | 1.7 | 4.3 | 0.01 | 0.01 | 0.01 | 83 | 1016.4 |
| 20260830200609 | 69 | 232 | 1.7 | 4.3 | 0.01 | 0.01 | 0.01 | 83 | 1016.4 |
| 20260830200513 | 69 | 238 | 1.7 | 4.3 | 0.01 | 0.01 | 0.01 | 84 | 1016.4 |
| 20260830200437 | 69 | 186 | 1.7 | 4.3 | 0.01 | 0.01 | 0.01 | 84 | 1016.4 |
| 20260830200308 | 69 | 229 | 1.7 | 4.3 | 0.01 | 0.01 | 0.01 | 84 | 1016.4 |
| 20260830200224 | 68 | 227 | 2.6 | 4.3 | 0.01 | 0.01 | 0.01 | 83 | 1016.4 |
| 20260830200035 | 69 | 198 | 1.7 | 4.3 | 0.01 | 0.01 | 0.01 | 84 | 1016.4 |
| 20260830195949 | 68 | 229 | 2.6 | 4.3 | 0.01 | 0.01 | 0.01 | 83 | 1016.4 |
| 20260830195820 | 69 | 183 | 2.6 | 4.3 | 0.01 | 0.01 | 0.01 | 83 | 1016.4 |
| 20260830195741 | 69 | 213 | 2.6 | 4.3 | 0.01 | 0.01 | 0.01 | 83 | 1016.4 |
| 20260830195609 | 68 | 187 | 2.6 | 4.3 | 0.01 | 0.01 | 0.01 | 83 | 1016.4 |
| 20260830195523 | 68 | 234 | 1.7 | 4.3 | 0.01 | 0.01 | 0.01 | 83 | 1016.4 |
| 20260830195353 | 68 | 218 | 0.9 | 4.3 | 0.01 | 0.01 | 0.01 | 83 | 1016.3 |
| 20260830195315 | 68 | 213 | 1.7 | 4.3 | 0.01 | 0.01 | 0.01 | 83 | 1016.3 |
| 20260830195124 | 68 | 221 | 1.7 | 4.3 | 0.01 | 0.01 | 0.01 | 84 | 1016.3 |
| 20260830195046 | 68 | 220 | 1.7 | 4.3 | 0.01 | 0.01 | 0.01 | 83 | 1016.2 |
| 20260830194927 | 68 | 182 | 1.7 | 4.3 | 0.01 | 0.01 | 0.01 | 84 | 1016.2 |
| 20260830194849 | 68 | 229 | 1.7 | 4.3 | 0.01 | 0.01 | 0.01 | 84 | 1016.2 |
| 20260830194631 | 68 | 252 | 2.6 | 4.3 | 0.01 | 0.01 | 0.01 | 83 | 1016.3 |
| 20260830194554 | 68 | 193 | 2.6 | 4.3 | 0.01 | 0.01 | 0.01 | 83 | 1016.3 |
| 20260830194438 | 68 | 210 | 1.7 | 4.3 | 0.01 | 0.01 | 0.01 | 85 | 1016.3 |
| 20260830194358 | 68 | 178 | 1.7 | 4.3 | 0.01 | 0.01 | 0.01 | 85 | 1016.3 |
| 20260830194323 | 68 | 171 | 0.9 | 4.3 | 0.01 | 0.01 | 0.01 | 84 | 1016.3 |
| 20260830194223 | 68 | 193 | 0.9 | 4.3 | 0.01 | 0.01 | 0.01 | 84 | 1016.3 |
| 20260830194127 | 68 | 193 | 1.7 | 4.3 | 0.01 | 0.01 | 0.01 | 84 | 1016.3 |
| 20260830193956 | 68 | 180 | 0.9 | 4.3 | 0.01 | 0.01 | 0.01 | 85 | 1016.4 |
| 20260830193850 | 68 | 184 | 1.7 | 4.3 | 0.01 | 0.01 | 0.01 | 85 | 1016.5 |
| 20260830193718 | 68 | 215 | 2.6 | 4.3 | 0.01 | 0.01 | 0.01 | 85 | 1016.4 |
| 20260830193640 | 68 | 195 | 2.6 | 4.3 | 0.01 | 0.01 | 0.01 | 84 | 1016.4 |
| 20260830193441 | 68 | 190 | 2.6 | 4.3 | 0.01 | 0.01 | 0.01 | 85 | 1016.5 |
| 20260830193359 | 68 | 189 | 2.6 | 4.3 | 0.01 | 0.01 | 0.01 | 85 | 1016.5 |
| 20260830193303 | 68 | 182 | 1.7 | 3.5 | 0.01 | 0.01 | 0.01 | 85 | 1016.5 |
| 20260830193225 | 68 | 182 | 1.7 | 3.5 | 0.01 | 0.01 | 0.01 | 85 | 1016.5 |
| 20260830193028 | 68 | 211 | 2.6 | 3.5 | 0.01 | 0.01 | 0.01 | 85 | 1016.5 |
| 20260830192933 | 68 | 186 | 1.7 | 3.5 | 0.01 | 0.01 | 0.01 | 85 | 1016.6 |
| 20260830192837 | 68 | 208 | 1.7 | 3.5 | 0.01 | 0.01 | 0.01 | 84 | 1016.6 |
| 20260830192758 | 68 | 236 | 1.7 | 3.5 | 0.01 | 0.01 | 0.01 | 84 | 1016.6 |
| 20260830192719 | 68 | 234 | 1.7 | 3.5 | 0.01 | 0.01 | 0.01 | 84 | 1016.6 |
| 20260830192623 | 68 | 188 | 0.9 | 3.5 | 0.01 | 0.01 | 0.01 | 84 | 1016.7 |
| 20260830192523 | 68 | 251 | 0.9 | 3.5 | 0.01 | 0.01 | 0.01 | 84 | 1016.7 |
| 20260830192327 | 68 | 207 | 0.9 | 3.5 | 0.01 | 0.01 | 0.01 | 84 | 1016.7 |
| 20260830192227 | 68 | 207 | 2.6 | 3.5 | 0.01 | 0.01 | 0.01 | 83 | 1016.7 |
| 20260830192131 | 68 | 195 | 2.6 | 3.5 | 0.01 | 0.01 | 0.01 | 84 | 1016.7 |
| 20260830192031 | 68 | 219 | 1.7 | 4.3 | 0.01 | 0.01 | 0.01 | 83 | 1016.7 |
| 20260830191957 | 68 | 263 | 1.7 | 4.3 | 0.01 | 0.01 | 0.01 | 84 | 1016.6 |
| 20260830191814 | 68 | 187 | 1.7 | 4.3 | 0.01 | 0.01 | 0.01 | 84 | 1016.7 |
| 20260830191725 | 68 | 187 | 1.7 | 4.3 | 0.01 | 0.01 | 0.01 | 84 | 1016.7 |
| 20260830191628 | 68 | 187 | 1.7 | 4.3 | 0.01 | 0.01 | 0.01 | 84 | 1016.7 |
| 20260830191530 | 68 | 187 | 2.6 | 4.3 | 0.01 | 0.01 | 0.01 | 83 | 1016.7 |
| 20260830191452 | 68 | 187 | 1.7 | 4.3 | 0.01 | 0.01 | 0.01 | 83 | 1016.7 |
| 20260830191337 | 68 | 182 | 2.6 | 6.1 | 0.00 | 0.00 | 0.00 | 84 | 1016.7 |
| 20260830191257 | 68 | 166 | 2.6 | 6.1 | 0.00 | 0.00 | 0.00 | 83 | 1016.7 |
| 20260830191146 | 68 | 167 | 3.5 | 6.1 | 0.00 | 0.00 | 0.00 | 83 | 1016.8 |
| 20260830191108 | 68 | 175 | 2.6 | 6.1 | 0.00 | 0.00 | 0.00 | 82 | 1016.8 |
| 20260830190917 | 68 | 175 | 2.6 | 6.1 | 0.00 | 0.00 | 0.00 | 82 | 1016.9 |
| 20260830190831 | 68 | 174 | 2.6 | 6.1 | 0.00 | 0.00 | 0.00 | 83 | 1016.9 |
| 20260830190701 | 68 | 188 | 3.5 | 6.1 | 0.00 | 0.00 | 0.00 | 82 | 1017.0 |
| 20260830190621 | 68 | 188 | 3.5 | 6.1 | 0.00 | 0.00 | 0.00 | 82 | 1017.0 |
| 20260830190503 | 68 | 190 | 2.6 | 6.1 | 0.00 | 0.00 | 0.00 | 82 | 1017.0 |
| 20260830190426 | 68 | 175 | 2.6 | 6.1 | 0.00 | 0.00 | 0.00 | 82 | 1017.0 |
| 20260830190229 | 68 | 162 | 2.6 | 6.1 | 0.00 | 0.00 | 0.00 | 81 | 1017.1 |
| 20260830190130 | 68 | 174 | 2.6 | 6.1 | 0.00 | 0.00 | 0.00 | 81 | 1017.0 |
| 20260830190034 | 68 | 236 | 2.6 | 6.1 | 0.00 | 0.00 | 0.00 | 80 | 1017.1 |
| 20260830185940 | 68 | 229 | 2.6 | 6.1 | 0.00 | 0.00 | 0.00 | 81 | 1017.1 |
| 20260830185903 | 68 | 184 | 2.6 | 6.1 | 0.00 | 0.00 | 0.00 | 79 | 1017.1 |
| 20260830185805 | 69 | 197 | 2.6 | 6.1 | 0.00 | 0.00 | 0.00 | 79 | 1017.1 |
| 20260830185728 | 69 | 192 | 2.6 | 7.0 | 0.00 | 0.00 | 0.00 | 79 | 1017.1 |
| 20260830185531 | 69 | 213 | 3.5 | 7.0 | 0.00 | 0.00 | 0.00 | 79 | 1017.1 |
| 20260830185433 | 69 | 208 | 3.5 | 6.1 | 0.00 | 0.00 | 0.00 | 79 | 1017.1 |
| 20260830185337 | 69 | 192 | 3.5 | 7.0 | 0.00 | 0.00 | 0.00 | 79 | 1017.0 |
| 20260830185237 | 69 | 171 | 3.5 | 7.0 | 0.00 | 0.00 | 0.00 | 79 | 1017.0 |
| 20260830185107 | 69 | 250 | 2.6 | 7.0 | 0.00 | 0.00 | 0.00 | 79 | 1017.1 |
| 20260830185022 | 69 | 213 | 2.6 | 7.0 | 0.00 | 0.00 | 0.00 | 80 | 1017.1 |
| 20260830184833 | 69 | 229 | 3.5 | 7.0 | 0.00 | 0.00 | 0.00 | 78 | 1017.1 |
| 20260830184753 | 69 | 250 | 3.5 | 7.0 | 0.00 | 0.00 | 0.00 | 78 | 1017.1 |
| 20260830184538 | 69 | 208 | 3.5 | 7.8 | 0.00 | 0.00 | 0.00 | 78 | 1017.0 |
| 20260830184459 | 69 | 219 | 3.5 | 7.8 | 0.00 | 0.00 | 0.00 | 79 | 1016.9 |
| 20260830184346 | 69 | 202 | 3.5 | 7.8 | 0.00 | 0.00 | 0.00 | 77 | 1016.9 |
| 20260830184316 | 69 | 172 | 3.5 | 7.8 | 0.00 | 0.00 | 0.00 | 78 | 1017.0 |
| 20260830184148 | 69 | 198 | 2.6 | 7.8 | 0.00 | 0.00 | 0.00 | 80 | 1017.1 |
| 20260830184042 | 69 | 175 | 3.5 | 7.8 | 0.00 | 0.00 | 0.00 | 78 | 1017.1 |
| 20260830184004 | 69 | 197 | 3.5 | 7.8 | 0.00 | 0.00 | 0.00 | 78 | 1017.2 |
| 20260830183908 | 69 | 205 | 4.3 | 7.8 | 0.00 | 0.00 | 0.00 | 78 | 1017.1 |
| 20260830183814 | 69 | 186 | 4.3 | 7.8 | 0.00 | 0.00 | 0.00 | 78 | 1017.1 |
| 20260830183643 | 69 | 218 | 4.3 | 7.8 | 0.00 | 0.00 | 0.00 | 78 | 1017.2 |
| 20260830183537 | 68 | 167 | 4.3 | 6.1 | 0.00 | 0.00 | 0.00 | 77 | 1017.2 |
| 20260830183510 | 68 | 159 | 4.3 | 6.1 | 0.00 | 0.00 | 0.00 | 78 | 1017.2 |
| 20260830183414 | 68 | 207 | 4.3 | 7.0 | 0.00 | 0.00 | 0.00 | 78 | 1017.3 |
| 20260830183335 | 68 | 223 | 4.3 | 6.1 | 0.00 | 0.00 | 0.00 | 78 | 1017.3 |
| 20260830183204 | 68 | 242 | 3.5 | 6.1 | 0.00 | 0.00 | 0.00 | 80 | 1017.2 |
| 20260830183119 | 68 | 175 | 2.6 | 6.1 | 0.00 | 0.00 | 0.00 | 80 | 1017.2 |
| 20260830182928 | 68 | 196 | 2.6 | 6.1 | 0.00 | 0.00 | 0.00 | 80 | 1017.2 |
| 20260830182843 | 68 | 193 | 2.6 | 6.1 | 0.00 | 0.00 | 0.00 | 80 | 1017.2 |
| 20260830182651 | 68 | 190 | 2.6 | 7.8 | 0.00 | 0.00 | 0.00 | 79 | 1017.1 |
| 20260830182617 | 68 | 189 | 3.5 | 7.8 | 0.00 | 0.00 | 0.00 | 79 | 1017.1 |
| 20260830182446 | 68 | 163 | 3.5 | 7.8 | 0.00 | 0.00 | 0.00 | 79 | 1017.1 |
| 20260830182339 | 68 | 193 | 3.5 | 7.8 | 0.00 | 0.00 | 0.00 | 81 | 1017.1 |
| 20260830182305 | 68 | 198 | 3.5 | 7.8 | 0.00 | 0.00 | 0.00 | 80 | 1017.2 |
| 20260830182206 | 68 | 175 | 2.6 | 7.8 | 0.00 | 0.00 | 0.00 | 79 | 1017.2 |
| 20260830182128 | 68 | 211 | 2.6 | 7.8 | 0.00 | 0.00 | 0.00 | 80 | 1017.2 |
| 20260830181931 | 68 | 184 | 4.3 | 7.8 | 0.00 | 0.00 | 0.00 | 79 | 1017.3 |
| 20260830181834 | 68 | 186 | 5.2 | 7.8 | 0.00 | 0.00 | 0.00 | 80 | 1017.4 |
| 20260830181738 | 68 | 161 | 4.3 | 7.0 | 0.00 | 0.00 | 0.00 | 80 | 1017.4 |
| 20260830181648 | 68 | 204 | 4.3 | 7.0 | 0.00 | 0.00 | 0.00 | 80 | 1017.4 |
| 20260830181434 | 68 | 210 | 1.7 | 6.1 | 0.00 | 0.00 | 0.00 | 82 | 1017.5 |
| 20260830181339 | 68 | 193 | 2.6 | 6.1 | 0.00 | 0.00 | 0.00 | 81 | 1017.5 |
| 20260830181254 | 68 | 168 | 2.6 | 6.1 | 0.00 | 0.00 | 0.00 | 81 | 1017.5 |
| 20260830181136 | 68 | 231 | 2.6 | 6.1 | 0.00 | 0.00 | 0.00 | 81 | 1017.5 |
| 20260830181040 | 68 | 142 | 2.6 | 6.1 | 0.00 | 0.00 | 0.00 | 82 | 1017.5 |
| 20260830181000 | 68 | 166 | 2.6 | 6.1 | 0.00 | 0.00 | 0.00 | 80 | 1017.6 |
| 20260830180823 | 68 | 203 | 2.6 | 6.1 | 0.00 | 0.00 | 0.00 | 82 | 1017.6 |
| 20260830180722 | 68 | 196 | 3.5 | 6.1 | 0.00 | 0.00 | 0.00 | 82 | 1017.6 |
| 20260830180537 | 68 | 156 | 3.5 | 6.1 | 0.00 | 0.00 | 0.00 | 82 | 1017.7 |
| 20260830180432 | 68 | 223 | 2.6 | 6.1 | 0.00 | 0.00 | 0.00 | 83 | 1017.7 |
| 20260830180353 | 68 | 234 | 3.5 | 6.1 | 0.00 | 0.00 | 0.00 | 82 | 1017.7 |
| 20260830180257 | 68 | 236 | 2.6 | 6.1 | 0.00 | 0.00 | 0.00 | 81 | 1017.7 |
| 20260830180218 | 68 | 221 | 2.6 | 6.1 | 0.00 | 0.00 | 0.00 | 81 | 1017.7 |
| 20260830180048 | 68 | 234 | 1.7 | 5.2 | 0.00 | 0.00 | 0.00 | 82 | 1017.8 |
| 20260830175924 | 68 | 177 | 2.6 | 5.2 | 0.00 | 0.00 | 0.00 | 83 | 1017.8 |
| 20260830175829 | 68 | 239 | 2.6 | 5.2 | 0.00 | 0.00 | 0.00 | 83 | 1017.8 |
| 20260830175750 | 68 | 180 | 2.6 | 5.2 | 0.00 | 0.00 | 0.00 | 83 | 1017.8 |
| 20260830175621 | 68 | 202 | 2.6 | 5.2 | 0.00 | 0.00 | 0.00 | 83 | 1017.8 |
| 20260830175540 | 68 | 194 | 1.7 | 5.2 | 0.00 | 0.00 | 0.00 | 84 | 1017.8 |
| 20260830175410 | 68 | 188 | 2.6 | 3.5 | 0.00 | 0.00 | 0.00 | 83 | 1017.9 |
| 20260830175331 | 68 | 169 | 2.6 | 3.5 | 0.00 | 0.00 | 0.00 | 82 | 1017.9 |
| 20260830175202 | 68 | 193 | 0.9 | 4.3 | 0.00 | 0.00 | 0.00 | 84 | 1017.9 |
| 20260830175116 | 68 | 115 | 0.9 | 4.3 | 0.00 | 0.00 | 0.00 | 84 | 1017.9 |
| 20260830174927 | 68 | 181 | 1.7 | 4.3 | 0.00 | 0.00 | 0.00 | 83 | 1017.9 |
| 20260830174824 | 68 | 137 | 0.9 | 2.6 | 0.00 | 0.00 | 0.00 | 83 | 1017.8 |
| 20260830174745 | 68 | 143 | 0.9 | 2.6 | 0.00 | 0.00 | 0.00 | 84 | 1017.8 |
| 20260830174649 | 68 | 88 | 0.9 | 2.6 | 0.00 | 0.00 | 0.00 | 83 | 1017.8 |
| 20260830174551 | 68 | 88 | 0.9 | 2.6 | 0.00 | 0.00 | 0.00 | 83 | 1017.9 |
| 20260830174513 | 68 | 165 | 0.0 | 2.6 | 0.00 | 0.00 | 0.00 | 83 | 1017.9 |
| 20260830174400 | 68 | 165 | 0.9 | 3.5 | 0.00 | 0.00 | 0.00 | 82 | 1018.0 |
| 20260830174322 | 68 | 159 | 0.9 | 3.5 | 0.00 | 0.00 | 0.00 | 82 | 1018.0 |
| 20260830174126 | 68 | 155 | 0.9 | 3.5 | 0.00 | 0.00 | 0.00 | 83 | 1018.0 |
| 20260830174027 | 68 | 138 | 0.9 | 7.0 | 0.00 | 0.00 | 0.00 | 82 | 1018.1 |
| 20260830173931 | 68 | 157 | 0.9 | 7.0 | 0.00 | 0.00 | 0.00 | 82 | 1018.1 |
| 20260830173852 | 68 | 157 | 1.7 | 7.0 | 0.00 | 0.00 | 0.00 | 81 | 1018.1 |
| 20260830173722 | 68 | 217 | 2.6 | 7.0 | 0.00 | 0.00 | 0.00 | 81 | 1018.1 |
| 20260830173636 | 68 | 179 | 1.7 | 7.0 | 0.00 | 0.00 | 0.00 | 81 | 1018.0 |
| 20260830173507 | 68 | 198 | 1.7 | 7.0 | 0.00 | 0.00 | 0.00 | 81 | 1018.0 |
| 20260830173429 | 68 | 215 | 2.6 | 7.0 | 0.00 | 0.00 | 0.00 | 81 | 1018.0 |
| 20260830173258 | 68 | 197 | 4.3 | 7.0 | 0.00 | 0.00 | 0.00 | 81 | 1017.9 |
| 20260830173217 | 68 | 150 | 4.3 | 7.0 | 0.00 | 0.00 | 0.00 | 81 | 1017.9 |
| 20260830173026 | 68 | 167 | 2.6 | 7.0 | 0.00 | 0.00 | 0.00 | 80 | 1017.9 |
| 20260830172941 | 68 | 193 | 2.6 | 7.0 | 0.00 | 0.00 | 0.00 | 81 | 1017.9 |
| 20260830172842 | 68 | 144 | 2.6 | 7.0 | 0.00 | 0.00 | 0.00 | 81 | 1017.9 |
| 20260830172725 | 68 | 221 | 1.7 | 7.8 | 0.00 | 0.00 | 0.00 | 80 | 1018.0 |
| 20260830172646 | 68 | 238 | 0.9 | 7.8 | 0.00 | 0.00 | 0.00 | 81 | 1018.0 |
| 20260830172531 | 68 | 146 | 2.6 | 8.7 | 0.00 | 0.00 | 0.00 | 80 | 1018.0 |
| 20260830172452 | 68 | 146 | 3.5 | 8.7 | 0.00 | 0.00 | 0.00 | 80 | 1017.9 |
| 20260830172323 | 68 | 161 | 4.3 | 8.7 | 0.00 | 0.00 | 0.00 | 80 | 1017.9 |
| 20260830172218 | 68 | 167 | 5.2 | 8.7 | 0.00 | 0.00 | 0.00 | 80 | 1017.9 |
| 20260830172054 | 68 | 170 | 5.2 | 8.7 | 0.00 | 0.00 | 0.00 | 80 | 1017.9 |
| 20260830172015 | 68 | 109 | 5.2 | 8.7 | 0.00 | 0.00 | 0.00 | 81 | 1017.8 |
| 20260830171846 | 68 | 157 | 6.1 | 9.6 | 0.00 | 0.00 | 0.00 | 80 | 1017.9 |
| 20260830171740 | 68 | 188 | 4.3 | 8.7 | 0.00 | 0.00 | 0.00 | 81 | 1017.9 |
| 20260830171625 | 68 | 188 | 4.3 | 8.7 | 0.00 | 0.00 | 0.00 | 80 | 1017.8 |
| 20260830171546 | 68 | 180 | 4.3 | 8.7 | 0.00 | 0.00 | 0.00 | 81 | 1017.8 |
| 20260830171415 | 68 | 217 | 5.2 | 8.7 | 0.00 | 0.00 | 0.00 | 80 | 1017.9 |
| 20260830171331 | 68 | 224 | 5.2 | 8.7 | 0.00 | 0.00 | 0.00 | 81 | 1017.9 |
| 20260830171141 | 68 | 218 | 2.6 | 7.0 | 0.00 | 0.00 | 0.00 | 81 | 1017.9 |
| 20260830171040 | 68 | 227 | 2.6 | 7.0 | 0.00 | 0.00 | 0.00 | 82 | 1017.9 |
| 20260830170924 | 68 | 205 | 3.5 | 7.0 | 0.00 | 0.00 | 0.00 | 82 | 1017.9 |
| 20260830170845 | 68 | 153 | 3.5 | 7.0 | 0.00 | 0.00 | 0.00 | 81 | 1017.9 |
| 20260830170805 | 68 | 220 | 4.3 | 7.0 | 0.00 | 0.00 | 0.00 | 82 | 1017.8 |
| 20260830170709 | 68 | 173 | 4.3 | 7.0 | 0.00 | 0.00 | 0.00 | 81 | 1017.8 |
| 20260830170631 | 68 | 146 | 4.3 | 7.8 | 0.00 | 0.00 | 0.00 | 81 | 1017.8 |
| 20260830170502 | 68 | 223 | 3.5 | 7.0 | 0.00 | 0.00 | 0.00 | 82 | 1017.9 |
| 20260830170417 | 68 | 188 | 4.3 | 7.0 | 0.00 | 0.00 | 0.00 | 82 | 1017.9 |
| 20260830170248 | 68 | 192 | 4.3 | 7.8 | 0.00 | 0.00 | 0.00 | 81 | 1017.8 |
| 20260830170148 | 67 | 202 | 3.5 | 7.8 | 0.00 | 0.00 | 0.00 | 81 | 1017.8 |
| 20260830170031 | 67 | 182 | 2.6 | 8.7 | 0.00 | 0.00 | 0.00 | 83 | 1017.8 |
| 20260830165938 | 67 | 204 | 1.7 | 8.7 | 0.00 | 0.00 | 0.00 | 83 | 1017.8 |
| 20260830165901 | 67 | 196 | 1.7 | 8.7 | 0.00 | 0.00 | 0.00 | 82 | 1017.9 |
| 20260830165805 | 67 | 225 | 1.7 | 8.7 | 0.00 | 0.00 | 0.00 | 82 | 1017.7 |
| 20260830165726 | 67 | 157 | 2.6 | 11.3 | 0.00 | 0.00 | 0.00 | 82 | 1017.7 |
| 20260830165556 | 67 | 157 | 3.5 | 11.3 | 0.00 | 0.00 | 0.00 | 82 | 1017.9 |
| 20260830165420 | 67 | 140 | 2.6 | 11.3 | 0.00 | 0.00 | 0.00 | 82 | 1017.9 |
| 20260830165336 | 67 | 227 | 5.2 | 11.3 | 0.00 | 0.00 | 0.00 | 82 | 1017.9 |
| 20260830165247 | 67 | 181 | 5.2 | 11.3 | 0.00 | 0.00 | 0.00 | 81 | 1017.9 |
| 20260830165208 | 67 | 177 | 4.3 | 11.3 | 0.00 | 0.00 | 0.00 | 82 | 1017.9 |
| 20260830165111 | 67 | 259 | 3.5 | 11.3 | 0.00 | 0.00 | 0.00 | 82 | 1018.0 |
| 20260830165033 | 67 | 173 | 5.2 | 11.3 | 0.00 | 0.00 | 0.00 | 82 | 1018.0 |
| 20260830164907 | 67 | 181 | 6.1 | 11.3 | 0.00 | 0.00 | 0.00 | 81 | 1018.0 |
| 20260830164823 | 67 | 229 | 5.2 | 9.6 | 0.00 | 0.00 | 0.00 | 82 | 1018.0 |
| 20260830164633 | 67 | 188 | 7.0 | 8.7 | 0.00 | 0.00 | 0.00 | 82 | 1018.1 |
| 20260830164547 | 67 | 171 | 5.2 | 10.4 | 0.00 | 0.00 | 0.00 | 82 | 1018.1 |
| 20260830164336 | 67 | 203 | 4.3 | 8.7 | 0.00 | 0.00 | 0.00 | 82 | 1018.1 |
| 20260830164251 | 67 | 155 | 3.5 | 8.7 | 0.00 | 0.00 | 0.00 | 82 | 1018.2 |
| 20260830164122 | 67 | 193 | 3.5 | 8.7 | 0.00 | 0.00 | 0.00 | 82 | 1018.1 |
| 20260830164043 | 67 | 165 | 4.3 | 8.7 | 0.00 | 0.00 | 0.00 | 82 | 1018.1 |
| 20260830163916 | 67 | 195 | 6.1 | 9.6 | 0.00 | 0.00 | 0.00 | 82 | 1018.1 |
| 20260830163831 | 67 | 232 | 5.2 | 9.6 | 0.00 | 0.00 | 0.00 | 82 | 1018.1 |
| 20260830163644 | 67 | 169 | 2.6 | 7.8 | 0.00 | 0.00 | 0.00 | 83 | 1018.2 |
| 20260830163538 | 67 | 221 | 2.6 | 7.8 | 0.00 | 0.00 | 0.00 | 83 | 1018.2 |
| 20260830163423 | 67 | 182 | 2.6 | 7.8 | 0.00 | 0.00 | 0.00 | 82 | 1018.1 |
| 20260830163344 | 67 | 172 | 2.6 | 7.8 | 0.00 | 0.00 | 0.00 | 83 | 1018.1 |
| 20260830163216 | 67 | 152 | 2.6 | 6.1 | 0.00 | 0.00 | 0.00 | 83 | 1018.1 |
| 20260830163131 | 67 | 241 | 3.5 | 6.1 | 0.00 | 0.00 | 0.00 | 83 | 1018.1 |
| 20260830162941 | 67 | 225 | 4.3 | 7.0 | 0.00 | 0.00 | 0.00 | 83 | 1018.1 |
| 20260830162837 | 67 | 226 | 3.5 | 7.0 | 0.00 | 0.00 | 0.00 | 83 | 1018.1 |
| 20260830162725 | 67 | 207 | 2.6 | 7.0 | 0.00 | 0.00 | 0.00 | 84 | 1017.9 |
| 20260830162645 | 67 | 232 | 1.7 | 7.0 | 0.00 | 0.00 | 0.00 | 84 | 1017.9 |
| 20260830162516 | 67 | 247 | 1.7 | 9.6 | 0.00 | 0.00 | 0.00 | 84 | 1017.8 |
| 20260830162410 | 67 | 247 | 2.6 | 9.6 | 0.00 | 0.00 | 0.00 | 83 | 1017.9 |
| 20260830162249 | 67 | 219 | 3.5 | 9.6 | 0.00 | 0.00 | 0.00 | 83 | 1017.9 |
| 20260830162149 | 67 | 189 | 2.6 | 9.6 | 0.00 | 0.00 | 0.00 | 83 | 1017.9 |
| 20260830162112 | 67 | 194 | 2.6 | 9.6 | 0.00 | 0.00 | 0.00 | 84 | 1018.0 |
| 20260830162016 | 67 | 251 | 3.5 | 9.6 | 0.00 | 0.00 | 0.00 | 83 | 1017.9 |
| 20260830161937 | 67 | 186 | 4.3 | 9.6 | 0.00 | 0.00 | 0.00 | 83 | 1017.9 |
| 20260830161758 | 66 | 169 | 6.1 | 9.6 | 0.00 | 0.00 | 0.00 | 83 | 1017.9 |
| 20260830161650 | 66 | 210 | 4.3 | 10.4 | 0.00 | 0.00 | 0.00 | 84 | 1018.0 |
| 20260830161459 | 66 | 224 | 2.6 | 10.4 | 0.00 | 0.00 | 0.00 | 85 | 1018.1 |
| 20260830161421 | 66 | 224 | 2.6 | 10.4 | 0.00 | 0.00 | 0.00 | 84 | 1018.1 |
| 20260830161227 | 66 | 229 | 3.5 | 10.4 | 0.00 | 0.00 | 0.00 | 84 | 1018.1 |
| 20260830161150 | 66 | 229 | 4.3 | 10.4 | 0.00 | 0.00 | 0.00 | 84 | 1018.1 |
| 20260830161033 | 66 | 133 | 1.7 | 7.8 | 0.00 | 0.00 | 0.00 | 85 | 1018.2 |
| 20260830160954 | 66 | 160 | 1.7 | 4.3 | 0.00 | 0.00 | 0.00 | 85 | 1018.1 |
| 20260830160837 | 66 | 228 | 1.7 | 5.2 | 0.00 | 0.00 | 0.00 | 86 | 1018.2 |
| 20260830160739 | 66 | 228 | 1.7 | 5.2 | 0.00 | 0.00 | 0.00 | 85 | 1018.2 |
| 20260830160702 | 66 | 277 | 2.6 | 5.2 | 0.00 | 0.00 | 0.00 | 85 | 1018.2 |
| 20260830160604 | 65 | 156 | 2.6 | 5.2 | 0.00 | 0.00 | 0.00 | 86 | 1018.2 |
| 20260830160525 | 65 | 195 | 1.7 | 5.2 | 0.00 | 0.00 | 0.00 | 86 | 1018.2 |
| 20260830160333 | 65 | 217 | 1.7 | 5.2 | 0.00 | 0.00 | 0.00 | 85 | 1018.3 |
| 20260830160233 | 65 | 183 | 2.6 | 5.2 | 0.00 | 0.00 | 0.00 | 86 | 1018.4 |
| 20260830160139 | 65 | 167 | 3.5 | 5.2 | 0.00 | 0.00 | 0.00 | 86 | 1018.4 |
| 20260830160059 | 65 | 167 | 3.5 | 5.2 | 0.00 | 0.00 | 0.00 | 85 | 1018.5 |
| 20260830160020 | 65 | 224 | 2.6 | 5.2 | 0.00 | 0.00 | 0.00 | 86 | 1018.5 |
| 20260830155903 | 65 | 150 | 2.6 | 6.1 | 0.00 | 0.00 | 0.00 | 86 | 1018.4 |
| 20260830155743 | 65 | 150 | 1.7 | 4.3 | 0.00 | 0.00 | 0.00 | 86 | 1018.4 |
| 20260830155649 | 65 | 159 | 0.9 | 4.3 | 0.00 | 0.00 | 0.00 | 86 | 1018.4 |
| 20260830155549 | 65 | 202 | 0.0 | 4.3 | 0.00 | 0.00 | 0.00 | 87 | 1018.4 |
| 20260830155449 | 65 | 205 | 0.0 | 4.3 | 0.00 | 0.00 | 0.00 | 87 | 1018.5 |
| 20260830155352 | 65 | 205 | 0.9 | 4.3 | 0.00 | 0.00 | 0.00 | 87 | 1018.5 |
| 20260830155235 | 65 | 205 | 1.7 | 4.3 | 0.00 | 0.00 | 0.00 | 87 | 1018.5 |
| 20260830155140 | 65 | 205 | 1.7 | 4.3 | 0.00 | 0.00 | 0.00 | 87 | 1018.5 |
| 20260830155100 | 65 | 197 | 2.6 | 4.3 | 0.00 | 0.00 | 0.00 | 87 | 1018.6 |
| 20260830155021 | 65 | 221 | 1.7 | 5.2 | 0.00 | 0.00 | 0.00 | 86 | 1018.5 |
| 20260830154925 | 65 | 171 | 1.7 | 6.1 | 0.00 | 0.00 | 0.00 | 86 | 1018.6 |
| 20260830154827 | 65 | 219 | 1.7 | 6.1 | 0.00 | 0.00 | 0.00 | 86 | 1018.6 |
| 20260830154630 | 65 | 205 | 0.9 | 6.1 | 0.00 | 0.00 | 0.00 | 86 | 1018.6 |
| 20260830154531 | 65 | 104 | 0.9 | 6.1 | 0.00 | 0.00 | 0.00 | 86 | 1018.5 |
| 20260830154435 | 65 | 222 | 2.6 | 6.1 | 0.00 | 0.00 | 0.00 | 85 | 1018.5 |
| 20260830154340 | 65 | 263 | 3.5 | 6.1 | 0.00 | 0.00 | 0.00 | 86 | 1018.5 |
| 20260830154259 | 65 | 217 | 3.5 | 6.1 | 0.00 | 0.00 | 0.00 | 85 | 1018.5 |
| 20260830154144 | 65 | 210 | 2.6 | 6.1 | 0.00 | 0.00 | 0.00 | 86 | 1018.5 |
| 20260830154046 | 65 | 210 | 2.6 | 5.2 | 0.00 | 0.00 | 0.00 | 85 | 1018.4 |
| 20260830153928 | 65 | 229 | 2.6 | 5.2 | 0.00 | 0.00 | 0.00 | 86 | 1018.4 |
| 20260830153850 | 65 | 217 | 1.7 | 5.2 | 0.00 | 0.00 | 0.00 | 86 | 1018.2 |
| 20260830153719 | 65 | 252 | 1.7 | 4.3 | 0.00 | 0.00 | 0.00 | 85 | 1018.2 |
| 20260830153634 | 65 | 207 | 2.6 | 4.3 | 0.00 | 0.00 | 0.00 | 85 | 1018.2 |
| 20260830153504 | 65 | 213 | 2.6 | 7.0 | 0.00 | 0.00 | 0.00 | 84 | 1018.2 |
| 20260830153425 | 65 | 266 | 1.7 | 7.0 | 0.00 | 0.00 | 0.00 | 85 | 1018.2 |
| 20260830153228 | 65 | 195 | 0.9 | 7.8 | 0.00 | 0.00 | 0.00 | 86 | 1018.2 |
| 20260830153152 | 65 | 207 | 0.9 | 7.8 | 0.00 | 0.00 | 0.00 | 86 | 1018.3 |
| 20260830153056 | 65 | 192 | 1.7 | 7.8 | 0.00 | 0.00 | 0.00 | 85 | 1018.3 |
| 20260830153019 | 65 | 188 | 2.6 | 7.8 | 0.00 | 0.00 | 0.00 | 85 | 1018.3 |
| 20260830152848 | 65 | 153 | 3.5 | 7.8 | 0.00 | 0.00 | 0.00 | 85 | 1018.4 |
| 20260830152742 | 64 | 189 | 3.5 | 7.8 | 0.00 | 0.00 | 0.00 | 85 | 1018.5 |
| 20260830152625 | 64 | 192 | 3.5 | 7.8 | 0.00 | 0.00 | 0.00 | 85 | 1018.5 |
| 20260830152526 | 64 | 210 | 3.5 | 7.8 | 0.00 | 0.00 | 0.00 | 85 | 1018.5 |
| 20260830152422 | 64 | 235 | 4.3 | 7.8 | 0.00 | 0.00 | 0.00 | 86 | 1018.6 |
| 20260830152340 | 65 | 192 | 4.3 | 7.8 | 0.00 | 0.00 | 0.00 | 85 | 1018.6 |
| 20260830152232 | 65 | 173 | 2.6 | 6.1 | 0.00 | 0.00 | 0.00 | 86 | 1018.7 |
| 20260830152204 | 64 | 210 | 2.6 | 6.1 | 0.00 | 0.00 | 0.00 | 85 | 1018.7 |
| 20260830152109 | 65 | 191 | 4.3 | 6.1 | 0.00 | 0.00 | 0.00 | 85 | 1018.7 |